Time,TemperatureF,DewpointF,PressureIn,WindDirection,WindDirectionDegrees,WindSpeedMPH,WindSpeedGustMPH,Humidity,HourlyPrecipIn,Conditions,Clouds,dailyrainin,SoftwareType,DateUTC
2013-03-29 00:00:00,37.8,31.2,29.92,North,5,0.0,1.0,77,0.00,,,0.02,Wunderground v.1.15,2013-03-29 04:00:00,
2013-03-29 00:02:00,37.7,31.5,29.92,North,5,0.0,1.0,78,0.00,,,0.02,Wunderground v.1.15,2013-03-29 04:02:00,
2013-03-29 00:03:00,37.6,31.4,29.92,North,5,0.0,1.0,78,0.00,,,0.02,Wunderground v.1.15,2013-03-29 04:03:00,
2013-03-29 00:06:00,37.4,31.2,29.92,North,5,0.0,1.0,78,0.00,,,0.02,Wunderground v.1.15,2013-03-29 04:06:00,
2013-03-29 00:09:00,37.2,31.3,29.92,North,5,0.0,1.0,79,0.00,,,0.02,Wunderground v.1.15,2013-03-29 04:09:00,
2013-03-29 00:10:00,37.1,31.2,29.92,North,5,0.0,1.0,79,0.00,,,0.02,Wunderground v.1.15,2013-03-29 04:10:00,
2013-03-29 00:11:00,37.0,31.1,29.92,North,5,0.0,1.0,79,0.00,,,0.02,Wunderground v.1.15,2013-03-29 04:11:00,
2013-03-29 00:14:00,36.8,31.2,29.92,North,5,0.0,1.0,80,0.00,,,0.02,Wunderground v.1.15,2013-03-29 04:14:00,
2013-03-29 00:17:00,36.7,31.1,29.92,North,5,0.0,1.0,80,0.00,,,0.02,Wunderground v.1.15,2013-03-29 04:17:00,
2013-03-29 00:18:00,36.6,31.0,29.92,North,5,0.0,1.0,80,0.00,,,0.02,Wunderground v.1.15,2013-03-29 04:18:00,
2013-03-29 00:19:00,36.6,31.0,29.92,North,5,0.0,1.0,80,0.00,,,0.02,Wunderground v.1.15,2013-03-29 04:19:00,
2013-03-29 00:20:00,36.6,31.3,29.92,North,5,0.0,1.0,81,0.00,,,0.02,Wunderground v.1.15,2013-03-29 04:20:00,
2013-03-29 00:24:00,36.5,31.2,29.92,North,5,0.0,1.0,81,0.00,,,0.02,Wunderground v.1.15,2013-03-29 04:24:00,
2013-03-29 00:25:00,36.5,31.2,29.92,North,5,0.0,1.0,81,0.00,,,0.02,Wunderground v.1.15,2013-03-29 04:25:00,
2013-03-29 00:26:00,36.4,31.1,29.93,North,5,0.0,1.0,81,0.00,,,0.02,Wunderground v.1.15,2013-03-29 04:26:00,
2013-03-29 00:29:00,36.4,31.1,29.93,North,5,0.0,1.0,81,0.00,,,0.02,Wunderground v.1.15,2013-03-29 04:29:00,
2013-03-29 00:33:00,36.3,31.0,29.93,North,5,0.0,1.0,81,0.00,,,0.02,Wunderground v.1.15,2013-03-29 04:33:00,
2013-03-29 00:34:00,36.3,31.0,29.93,North,5,0.0,1.0,81,0.00,,,0.02,Wunderground v.1.15,2013-03-29 04:34:00,
2013-03-29 00:38:00,36.3,31.0,29.93,North,5,0.0,1.0,81,0.00,,,0.02,Wunderground v.1.15,2013-03-29 04:38:00,
2013-03-29 00:40:00,36.3,31.0,29.93,North,5,0.0,1.0,81,0.00,,,0.02,Wunderground v.1.15,2013-03-29 04:40:00,
2013-03-29 00:42:00,36.3,31.0,29.93,North,5,0.0,1.0,81,0.00,,,0.02,Wunderground v.1.15,2013-03-29 04:42:00,
2013-03-29 00:47:00,36.3,31.3,29.93,North,5,0.0,1.0,82,0.00,,,0.02,Wunderground v.1.15,2013-03-29 04:47:00,
2013-03-29 00:48:00,36.3,31.3,29.93,North,5,0.0,1.0,82,0.00,,,0.02,Wunderground v.1.15,2013-03-29 04:48:00,
2013-03-29 00:49:00,36.3,31.3,29.93,North,5,0.0,1.0,82,0.00,,,0.02,Wunderground v.1.15,2013-03-29 04:49:00,
2013-03-29 00:50:00,36.3,31.3,29.93,North,5,0.0,1.0,82,0.00,,,0.02,Wunderground v.1.15,2013-03-29 04:50:00,
2013-03-29 00:55:00,36.2,31.2,29.93,North,5,0.0,1.0,82,0.00,,,0.02,Wunderground v.1.15,2013-03-29 04:55:00,
2013-03-29 00:56:00,36.2,31.2,29.93,North,5,0.0,1.0,82,0.00,,,0.02,Wunderground v.1.15,2013-03-29 04:56:00,
2013-03-29 00:57:00,36.2,31.2,29.93,North,5,0.0,1.0,82,0.00,,,0.02,Wunderground v.1.15,2013-03-29 04:57:00,
2013-03-29 01:00:00,36.2,31.2,29.93,North,5,0.0,0.0,82,0.00,,,0.02,Wunderground v.1.15,2013-03-29 05:00:00,
2013-03-29 01:02:00,36.2,31.2,29.93,North,5,0.0,0.0,82,0.00,,,0.02,Wunderground v.1.15,2013-03-29 05:02:00,
2013-03-29 01:05:00,36.1,31.1,29.93,North,5,0.0,0.0,82,0.00,,,0.02,Wunderground v.1.15,2013-03-29 05:05:00,
2013-03-29 01:07:00,36.1,31.1,29.93,North,5,0.0,0.0,82,0.00,,,0.02,Wunderground v.1.15,2013-03-29 05:07:00,
2013-03-29 01:08:00,36.1,31.1,29.93,North,5,0.0,0.0,82,0.00,,,0.02,Wunderground v.1.15,2013-03-29 05:08:00,
2013-03-29 01:10:00,36.0,31.0,29.93,North,5,0.0,0.0,82,0.00,,,0.02,Wunderground v.1.15,2013-03-29 05:10:00,
2013-03-29 01:12:00,35.9,30.9,29.93,North,5,0.0,0.0,82,0.00,,,0.02,Wunderground v.1.15,2013-03-29 05:12:00,
2013-03-29 01:14:00,35.8,30.8,29.93,North,5,0.0,2.0,82,0.00,,,0.02,Wunderground v.1.15,2013-03-29 05:14:00,
2013-03-29 01:15:00,35.7,30.7,29.93,North,5,0.0,2.0,82,0.00,,,0.02,Wunderground v.1.15,2013-03-29 05:15:00,
2013-03-29 01:23:00,35.4,30.8,29.93,North,5,1.0,1.0,83,0.00,,,0.02,Wunderground v.1.15,2013-03-29 05:23:00,
2013-03-29 01:24:00,35.4,30.8,29.93,North,5,0.0,1.0,83,0.00,,,0.02,Wunderground v.1.15,2013-03-29 05:24:00,
2013-03-29 01:25:00,35.4,30.8,29.93,North,5,0.0,1.0,83,0.00,,,0.02,Wunderground v.1.15,2013-03-29 05:25:00,
2013-03-29 01:28:00,35.4,30.8,29.93,North,5,0.0,1.0,83,0.00,,,0.02,Wunderground v.1.15,2013-03-29 05:28:00,
2013-03-29 01:29:00,35.4,30.8,29.93,North,5,0.0,1.0,83,0.00,,,0.02,Wunderground v.1.15,2013-03-29 05:29:00,
2013-03-29 01:30:00,35.4,30.8,29.93,North,5,0.0,0.0,83,0.00,,,0.02,Wunderground v.1.15,2013-03-29 05:30:00,
2013-03-29 01:34:00,35.3,30.7,29.93,North,5,0.0,0.0,83,0.00,,,0.00,Wunderground v.1.15,2013-03-29 05:34:00,
2013-03-29 01:37:00,35.3,30.7,29.93,North,5,0.0,0.0,83,0.00,,,0.00,Wunderground v.1.15,2013-03-29 05:37:00,
2013-03-29 01:39:00,35.3,30.7,29.93,North,5,0.0,0.0,83,0.00,,,0.00,Wunderground v.1.15,2013-03-29 05:39:00,
2013-03-29 01:40:00,35.2,30.9,29.93,North,5,0.0,0.0,84,0.00,,,0.00,Wunderground v.1.15,2013-03-29 05:40:00,
2013-03-29 01:42:00,35.1,30.8,29.93,North,5,0.0,0.0,84,0.00,,,0.00,Wunderground v.1.15,2013-03-29 05:42:00,
2013-03-29 01:45:00,35.1,30.8,29.93,North,5,0.0,0.0,84,0.00,,,0.00,Wunderground v.1.15,2013-03-29 05:45:00,
2013-03-29 01:46:00,35.0,30.7,29.93,North,5,0.0,0.0,84,0.00,,,0.00,Wunderground v.1.15,2013-03-29 05:46:00,
2013-03-29 01:50:00,34.9,30.6,29.93,North,5,0.0,0.0,84,0.00,,,0.00,Wunderground v.1.15,2013-03-29 05:50:00,
2013-03-29 01:51:00,34.9,30.6,29.93,North,5,0.0,0.0,84,0.00,,,0.00,Wunderground v.1.15,2013-03-29 05:51:00,
2013-03-29 01:57:00,34.7,30.4,29.93,North,5,0.0,0.0,84,0.00,,,0.00,Wunderground v.1.15,2013-03-29 05:57:00,
2013-03-29 01:59:00,34.7,30.4,29.93,North,5,0.0,0.0,84,0.00,,,0.00,Wunderground v.1.15,2013-03-29 05:59:00,
2013-03-29 02:01:00,34.7,30.4,29.93,North,5,0.0,0.0,84,0.00,,,0.00,Wunderground v.1.15,2013-03-29 06:01:00,
2013-03-29 02:04:00,34.6,30.6,29.93,North,5,0.0,0.0,85,0.00,,,0.00,Wunderground v.1.15,2013-03-29 06:04:00,
2013-03-29 02:06:00,34.6,30.6,29.93,North,5,0.0,0.0,85,0.00,,,0.00,Wunderground v.1.15,2013-03-29 06:06:00,
2013-03-29 02:07:00,34.6,30.6,29.93,North,5,0.0,0.0,85,0.00,,,0.00,Wunderground v.1.15,2013-03-29 06:07:00,
2013-03-29 02:09:00,34.6,30.6,29.93,North,5,0.0,0.0,85,0.00,,,0.00,Wunderground v.1.15,2013-03-29 06:09:00,
2013-03-29 02:12:00,34.6,30.6,29.93,North,5,0.0,0.0,85,0.00,,,0.00,Wunderground v.1.15,2013-03-29 06:12:00,
2013-03-29 02:14:00,34.5,30.5,29.93,North,5,0.0,0.0,85,0.00,,,0.00,Wunderground v.1.15,2013-03-29 06:14:00,
2013-03-29 02:15:00,34.6,30.6,29.93,North,5,0.0,0.0,85,0.00,,,0.00,Wunderground v.1.15,2013-03-29 06:15:00,
2013-03-29 02:17:00,34.5,30.5,29.93,North,5,0.0,0.0,85,0.00,,,0.00,Wunderground v.1.15,2013-03-29 06:17:00,
2013-03-29 02:20:00,34.5,30.5,29.93,North,5,0.0,0.0,85,0.00,,,0.00,Wunderground v.1.15,2013-03-29 06:20:00,
2013-03-29 02:23:00,34.4,30.4,29.93,North,5,0.0,0.0,85,0.00,,,0.00,Wunderground v.1.15,2013-03-29 06:23:00,
2013-03-29 02:24:00,34.4,30.4,29.93,North,5,0.0,0.0,85,0.00,,,0.00,Wunderground v.1.15,2013-03-29 06:24:00,
2013-03-29 02:28:00,34.4,30.6,29.93,North,5,0.0,0.0,86,0.00,,,0.00,Wunderground v.1.15,2013-03-29 06:28:00,
2013-03-29 02:29:00,34.4,30.6,29.93,North,5,0.0,0.0,86,0.00,,,0.00,Wunderground v.1.15,2013-03-29 06:29:00,
2013-03-29 02:31:00,34.4,30.6,29.93,North,5,0.0,0.0,86,0.00,,,0.00,Wunderground v.1.15,2013-03-29 06:31:00,
2013-03-29 02:34:00,34.5,30.7,29.93,North,5,0.0,0.0,86,0.00,,,0.00,Wunderground v.1.15,2013-03-29 06:34:00,
2013-03-29 02:36:00,34.6,30.8,29.93,North,5,0.0,0.0,86,0.00,,,0.00,Wunderground v.1.15,2013-03-29 06:36:00,
2013-03-29 02:37:00,34.6,30.8,29.93,North,5,0.0,0.0,86,0.00,,,0.00,Wunderground v.1.15,2013-03-29 06:37:00,
2013-03-29 02:39:00,34.7,30.9,29.93,North,5,0.0,0.0,86,0.00,,,0.00,Wunderground v.1.15,2013-03-29 06:39:00,
2013-03-29 02:41:00,34.7,30.9,29.93,North,5,0.0,0.0,86,0.00,,,0.00,Wunderground v.1.15,2013-03-29 06:41:00,
2013-03-29 02:44:00,34.8,31.0,29.93,North,5,0.0,1.0,86,0.00,,,0.00,Wunderground v.1.15,2013-03-29 06:44:00,
2013-03-29 02:45:00,34.8,31.0,29.93,North,5,0.0,1.0,86,0.00,,,0.00,Wunderground v.1.15,2013-03-29 06:45:00,
2013-03-29 02:49:00,34.8,31.0,29.93,North,5,0.0,1.0,86,0.00,,,0.00,Wunderground v.1.15,2013-03-29 06:49:00,
2013-03-29 02:51:00,34.7,30.9,29.93,North,5,0.0,0.0,86,0.00,,,0.00,Wunderground v.1.15,2013-03-29 06:51:00,
2013-03-29 02:52:00,34.8,31.0,29.93,North,5,0.0,0.0,86,0.00,,,0.00,Wunderground v.1.15,2013-03-29 06:52:00,
2013-03-29 02:55:00,34.7,30.7,29.93,North,5,0.0,0.0,85,0.00,,,0.00,Wunderground v.1.15,2013-03-29 06:55:00,
2013-03-29 02:56:00,34.7,30.9,29.93,North,5,0.0,0.0,86,0.00,,,0.00,Wunderground v.1.15,2013-03-29 06:56:00,
2013-03-29 02:58:00,34.7,30.9,29.93,North,5,0.0,0.0,86,0.00,,,0.00,Wunderground v.1.15,2013-03-29 06:58:00,
2013-03-29 02:59:00,34.6,30.8,29.93,North,5,0.0,0.0,86,0.00,,,0.00,Wunderground v.1.15,2013-03-29 06:59:00,
2013-03-29 03:02:00,34.6,30.6,29.93,North,5,0.0,2.0,85,0.00,,,0.00,Wunderground v.1.15,2013-03-29 07:02:00,
2013-03-29 03:03:00,34.6,30.6,29.92,North,5,0.0,2.0,85,0.00,,,0.00,Wunderground v.1.15,2013-03-29 07:03:00,
2013-03-29 03:04:00,34.6,30.6,29.92,North,5,0.0,2.0,85,0.00,,,0.00,Wunderground v.1.15,2013-03-29 07:04:00,
2013-03-29 03:09:00,34.3,30.3,29.92,North,5,0.0,2.0,85,0.00,,,0.00,Wunderground v.1.15,2013-03-29 07:09:00,
2013-03-29 03:10:00,34.3,30.5,29.92,North,5,0.0,2.0,86,0.00,,,0.00,Wunderground v.1.15,2013-03-29 07:10:00,
2013-03-29 03:12:00,34.2,30.4,29.92,North,5,0.0,2.0,86,0.00,,,0.00,Wunderground v.1.15,2013-03-29 07:12:00,
2013-03-29 03:13:00,34.2,30.4,29.92,North,5,0.0,2.0,86,0.00,,,0.00,Wunderground v.1.15,2013-03-29 07:13:00,
2013-03-29 03:18:00,34.1,30.4,29.92,North,5,0.0,2.0,86,0.00,,,0.00,Wunderground v.1.15,2013-03-29 07:18:00,
2013-03-29 03:19:00,34.1,30.4,29.92,North,5,0.0,2.0,86,0.00,,,0.00,Wunderground v.1.15,2013-03-29 07:19:00,
2013-03-29 03:22:00,34.0,30.3,29.92,North,5,0.0,2.0,86,0.00,,,0.00,Wunderground v.1.15,2013-03-29 07:22:00,
2013-03-29 03:24:00,33.9,30.2,29.92,North,5,0.0,2.0,86,0.00,,,0.00,Wunderground v.1.15,2013-03-29 07:24:00,
2013-03-29 03:26:00,33.9,30.2,29.92,North,5,0.0,2.0,86,0.00,,,0.00,Wunderground v.1.15,2013-03-29 07:26:00,
2013-03-29 03:28:00,33.8,30.3,29.92,North,5,0.0,2.0,87,0.00,,,0.00,Wunderground v.1.15,2013-03-29 07:28:00,
2013-03-29 03:30:00,33.9,30.4,29.92,North,5,0.0,2.0,87,0.00,,,0.00,Wunderground v.1.15,2013-03-29 07:30:00,
2013-03-29 03:32:00,33.9,30.4,29.92,North,5,0.0,2.0,87,0.00,,,0.00,Wunderground v.1.15,2013-03-29 07:32:00,
2013-03-29 03:33:00,33.9,30.4,29.92,North,5,0.0,2.0,87,0.00,,,0.00,Wunderground v.1.15,2013-03-29 07:33:00,
2013-03-29 03:35:00,33.9,30.4,29.92,North,5,1.0,2.0,87,0.00,,,0.00,Wunderground v.1.15,2013-03-29 07:35:00,
2013-03-29 03:36:00,33.9,30.4,29.92,North,5,1.0,2.0,87,0.00,,,0.00,Wunderground v.1.15,2013-03-29 07:36:00,
2013-03-29 03:37:00,34.0,30.5,29.92,North,5,1.0,2.0,87,0.00,,,0.00,Wunderground v.1.15,2013-03-29 07:37:00,
2013-03-29 03:41:00,34.1,30.6,29.92,North,5,1.0,2.0,87,0.00,,,0.00,Wunderground v.1.15,2013-03-29 07:41:00,
2013-03-29 03:42:00,34.1,30.6,29.92,North,5,1.0,2.0,87,0.00,,,0.00,Wunderground v.1.15,2013-03-29 07:42:00,
2013-03-29 03:43:00,34.0,30.5,29.92,North,5,0.0,2.0,87,0.00,,,0.00,Wunderground v.1.15,2013-03-29 07:43:00,
2013-03-29 03:47:00,33.9,30.4,29.92,North,5,0.0,2.0,87,0.00,,,0.00,Wunderground v.1.15,2013-03-29 07:47:00,
2013-03-29 03:51:00,33.9,30.4,29.92,North,5,0.0,2.0,87,0.00,,,0.00,Wunderground v.1.15,2013-03-29 07:51:00,
2013-03-29 03:52:00,33.9,30.4,29.92,North,5,0.0,2.0,87,0.00,,,0.00,Wunderground v.1.15,2013-03-29 07:52:00,
2013-03-29 03:53:00,33.8,30.3,29.92,North,5,0.0,2.0,87,0.00,,,0.00,Wunderground v.1.15,2013-03-29 07:53:00,
2013-03-29 03:54:00,33.8,30.3,29.92,North,5,0.0,2.0,87,0.00,,,0.00,Wunderground v.1.15,2013-03-29 07:54:00,
2013-03-29 03:57:00,33.7,30.2,29.92,North,5,0.0,2.0,87,0.00,,,0.00,Wunderground v.1.15,2013-03-29 07:57:00,
2013-03-29 03:59:00,33.7,30.2,29.92,North,5,0.0,2.0,87,0.00,,,0.00,Wunderground v.1.15,2013-03-29 07:59:00,
2013-03-29 04:00:00,33.6,30.1,29.92,North,5,0.0,2.0,87,0.00,,,0.00,Wunderground v.1.15,2013-03-29 08:00:00,
2013-03-29 04:03:00,33.5,30.0,29.92,North,5,0.0,2.0,87,0.00,,,0.00,Wunderground v.1.15,2013-03-29 08:03:00,
2013-03-29 04:08:00,33.3,29.8,29.92,North,5,0.0,2.0,87,0.00,,,0.00,Wunderground v.1.15,2013-03-29 08:08:00,
2013-03-29 04:09:00,33.3,29.8,29.92,North,5,0.0,2.0,87,0.00,,,0.00,Wunderground v.1.15,2013-03-29 08:09:00,
2013-03-29 04:10:00,33.3,29.8,29.92,North,5,0.0,2.0,87,0.00,,,0.00,Wunderground v.1.15,2013-03-29 08:10:00,
2013-03-29 04:16:00,33.1,29.7,29.92,North,5,0.0,2.0,87,0.00,,,0.00,Wunderground v.1.15,2013-03-29 08:16:00,
2013-03-29 04:17:00,33.0,29.6,29.92,North,5,0.0,2.0,87,0.00,,,0.00,Wunderground v.1.15,2013-03-29 08:17:00,
2013-03-29 04:21:00,32.9,29.7,29.92,North,5,0.0,2.0,88,0.00,,,0.00,Wunderground v.1.15,2013-03-29 08:21:00,
2013-03-29 04:23:00,32.9,29.7,29.92,North,5,0.0,2.0,88,0.00,,,0.00,Wunderground v.1.15,2013-03-29 08:23:00,
2013-03-29 04:27:00,32.8,29.6,29.92,North,5,0.0,2.0,88,0.00,,,0.00,Wunderground v.1.15,2013-03-29 08:27:00,
2013-03-29 04:28:00,32.8,29.6,29.92,North,5,0.0,2.0,88,0.00,,,0.00,Wunderground v.1.15,2013-03-29 08:28:00,
2013-03-29 04:30:00,32.7,29.5,29.92,North,5,0.0,2.0,88,0.00,,,0.00,Wunderground v.1.15,2013-03-29 08:30:00,
2013-03-29 04:33:00,32.6,29.4,29.92,North,5,0.0,2.0,88,0.00,,,0.00,Wunderground v.1.15,2013-03-29 08:33:00,
2013-03-29 04:34:00,32.5,29.3,29.92,North,5,0.0,2.0,88,0.00,,,0.00,Wunderground v.1.15,2013-03-29 08:34:00,
2013-03-29 04:37:00,32.5,29.3,29.92,North,5,0.0,2.0,88,0.00,,,0.00,Wunderground v.1.15,2013-03-29 08:37:00,
2013-03-29 04:39:00,32.5,29.3,29.92,North,5,0.0,2.0,88,0.00,,,0.00,Wunderground v.1.15,2013-03-29 08:39:00,
2013-03-29 04:40:00,32.5,29.3,29.92,North,5,0.0,2.0,88,0.00,,,0.00,Wunderground v.1.15,2013-03-29 08:40:00,
2013-03-29 04:42:00,32.5,29.3,29.92,North,5,0.0,2.0,88,0.00,,,0.00,Wunderground v.1.15,2013-03-29 08:42:00,
2013-03-29 04:45:00,32.4,29.2,29.92,North,5,0.0,2.0,88,0.00,,,0.00,Wunderground v.1.15,2013-03-29 08:45:00,
2013-03-29 04:47:00,32.4,29.2,29.92,North,5,0.0,2.0,88,0.00,,,0.00,Wunderground v.1.15,2013-03-29 08:47:00,
2013-03-29 04:50:00,32.4,29.2,29.92,North,5,0.0,2.0,88,0.00,,,0.00,Wunderground v.1.15,2013-03-29 08:50:00,
2013-03-29 04:51:00,32.4,29.2,29.92,North,5,0.0,2.0,88,0.00,,,0.00,Wunderground v.1.15,2013-03-29 08:51:00,
2013-03-29 04:52:00,32.4,29.2,29.92,North,5,0.0,2.0,88,0.00,,,0.00,Wunderground v.1.15,2013-03-29 08:52:00,
2013-03-29 04:53:00,32.4,29.5,29.92,North,5,0.0,2.0,89,0.00,,,0.00,Wunderground v.1.15,2013-03-29 08:53:00,
2013-03-29 04:55:00,32.4,29.5,29.92,North,5,0.0,2.0,89,0.00,,,0.00,Wunderground v.1.15,2013-03-29 08:55:00,
2013-03-29 04:57:00,32.4,29.5,29.92,North,5,0.0,2.0,89,0.00,,,0.00,Wunderground v.1.15,2013-03-29 08:57:00,
2013-03-29 04:59:00,32.3,29.4,29.92,North,5,0.0,2.0,89,0.00,,,0.00,Wunderground v.1.15,2013-03-29 08:59:00,
2013-03-29 05:00:00,32.3,29.4,29.92,North,5,0.0,0.0,89,0.00,,,0.00,Wunderground v.1.15,2013-03-29 09:00:00,
2013-03-29 05:04:00,32.3,29.4,29.92,North,5,0.0,0.0,89,0.00,,,0.00,Wunderground v.1.15,2013-03-29 09:04:00,
2013-03-29 05:05:00,32.3,29.4,29.92,North,5,0.0,0.0,89,0.00,,,0.00,Wunderground v.1.15,2013-03-29 09:05:00,
2013-03-29 05:06:00,32.3,29.4,29.92,North,5,0.0,0.0,89,0.00,,,0.00,Wunderground v.1.15,2013-03-29 09:06:00,
2013-03-29 05:08:00,32.3,29.4,29.92,North,5,0.0,0.0,89,0.00,,,0.00,Wunderground v.1.15,2013-03-29 09:08:00,
2013-03-29 05:11:00,32.3,29.4,29.92,North,5,0.0,0.0,89,0.00,,,0.00,Wunderground v.1.15,2013-03-29 09:11:00,
2013-03-29 05:13:00,32.3,29.4,29.92,North,5,0.0,0.0,89,0.00,,,0.00,Wunderground v.1.15,2013-03-29 09:13:00,
2013-03-29 05:17:00,32.3,29.4,29.92,North,5,0.0,0.0,89,0.00,,,0.00,Wunderground v.1.15,2013-03-29 09:17:00,
2013-03-29 05:19:00,32.3,29.4,29.92,North,5,0.0,0.0,89,0.00,,,0.00,Wunderground v.1.15,2013-03-29 09:19:00,
2013-03-29 05:20:00,32.4,29.5,29.92,North,5,0.0,0.0,89,0.00,,,0.00,Wunderground v.1.15,2013-03-29 09:20:00,
2013-03-29 05:22:00,32.4,29.5,29.92,North,5,0.0,0.0,89,0.00,,,0.00,Wunderground v.1.15,2013-03-29 09:22:00,
2013-03-29 05:24:00,32.4,29.5,29.93,North,5,0.0,0.0,89,0.00,,,0.00,Wunderground v.1.15,2013-03-29 09:24:00,
2013-03-29 05:28:00,32.4,29.5,29.92,North,5,0.0,0.0,89,0.00,,,0.00,Wunderground v.1.15,2013-03-29 09:28:00,
2013-03-29 05:30:00,32.4,29.5,29.92,North,5,0.0,0.0,89,0.00,,,0.00,Wunderground v.1.15,2013-03-29 09:30:00,
2013-03-29 05:31:00,32.3,29.4,29.92,North,5,0.0,0.0,89,0.00,,,0.00,Wunderground v.1.15,2013-03-29 09:31:00,
2013-03-29 05:34:00,32.3,29.4,29.92,North,5,0.0,0.0,89,0.00,,,0.00,Wunderground v.1.15,2013-03-29 09:34:00,
2013-03-29 05:35:00,32.3,29.4,29.92,North,5,0.0,0.0,89,0.00,,,0.00,Wunderground v.1.15,2013-03-29 09:35:00,
2013-03-29 05:36:00,32.3,29.4,29.92,North,5,0.0,0.0,89,0.00,,,0.00,Wunderground v.1.15,2013-03-29 09:36:00,
2013-03-29 05:37:00,32.3,29.4,29.92,North,5,0.0,0.0,89,0.00,,,0.00,Wunderground v.1.15,2013-03-29 09:37:00,
2013-03-29 05:42:00,32.1,29.2,29.92,North,5,0.0,0.0,89,0.00,,,0.00,Wunderground v.1.15,2013-03-29 09:42:00,
2013-03-29 05:43:00,32.1,29.5,29.92,North,5,0.0,0.0,90,0.00,,,0.00,Wunderground v.1.15,2013-03-29 09:43:00,
2013-03-29 05:47:00,32.1,29.5,29.92,North,5,0.0,0.0,90,0.00,,,0.00,Wunderground v.1.15,2013-03-29 09:47:00,
2013-03-29 05:48:00,32.0,29.4,29.92,North,5,0.0,0.0,90,0.00,,,0.00,Wunderground v.1.15,2013-03-29 09:48:00,
2013-03-29 05:53:00,32.0,29.4,29.92,North,5,0.0,1.0,90,0.00,,,0.00,Wunderground v.1.15,2013-03-29 09:53:00,
2013-03-29 05:54:00,32.1,29.5,29.92,North,5,0.0,1.0,90,0.00,,,0.00,Wunderground v.1.15,2013-03-29 09:54:00,
2013-03-29 05:56:00,32.1,29.5,29.92,North,5,0.0,1.0,90,0.00,,,0.00,Wunderground v.1.15,2013-03-29 09:56:00,
2013-03-29 05:59:00,32.0,29.4,29.92,North,5,0.0,2.0,90,0.00,,,0.00,Wunderground v.1.15,2013-03-29 09:59:00,
2013-03-29 06:00:00,32.1,29.5,29.92,North,5,0.0,1.0,90,0.00,,,0.00,Wunderground v.1.15,2013-03-29 10:00:00,
2013-03-29 06:01:00,32.0,29.4,29.92,North,5,0.0,2.0,90,0.00,,,0.00,Wunderground v.1.15,2013-03-29 10:01:00,
2013-03-29 06:05:00,32.0,29.4,29.92,North,5,0.0,2.0,90,0.00,,,0.00,Wunderground v.1.15,2013-03-29 10:05:00,
2013-03-29 06:10:00,31.8,29.2,29.92,North,5,0.0,0.0,90,0.00,,,0.00,Wunderground v.1.15,2013-03-29 10:10:00,
2013-03-29 06:11:00,31.9,29.3,29.92,North,5,0.0,0.0,90,0.00,,,0.00,Wunderground v.1.15,2013-03-29 10:11:00,
2013-03-29 06:12:00,31.8,29.2,29.92,North,5,0.0,0.0,90,0.00,,,0.00,Wunderground v.1.15,2013-03-29 10:12:00,
2013-03-29 06:17:00,31.8,29.2,29.92,North,5,0.0,0.0,90,0.00,,,0.00,Wunderground v.1.15,2013-03-29 10:17:00,
2013-03-29 06:19:00,31.8,29.2,29.92,North,5,0.0,0.0,90,0.00,,,0.00,Wunderground v.1.15,2013-03-29 10:19:00,
2013-03-29 06:23:00,31.8,29.2,29.92,North,5,0.0,0.0,90,0.00,,,0.00,Wunderground v.1.15,2013-03-29 10:23:00,
2013-03-29 06:24:00,31.7,29.1,29.92,North,5,0.0,0.0,90,0.00,,,0.00,Wunderground v.1.15,2013-03-29 10:24:00,
2013-03-29 06:25:00,31.7,29.1,29.92,North,9,0.0,0.0,90,0.00,,,0.00,Wunderground v.1.15,2013-03-29 10:25:00,
2013-03-29 06:27:00,31.7,29.1,29.92,NE,46,0.0,0.0,90,0.00,,,0.00,Wunderground v.1.15,2013-03-29 10:27:00,
2013-03-29 06:29:00,31.6,29.0,29.92,NE,49,0.0,0.0,90,0.00,,,0.00,Wunderground v.1.15,2013-03-29 10:29:00,
2013-03-29 06:33:00,31.6,29.0,29.92,NE,51,0.0,0.0,90,0.00,,,0.00,Wunderground v.1.15,2013-03-29 10:33:00,
2013-03-29 06:36:00,31.5,28.9,29.92,SE,124,0.0,0.0,90,0.00,,,0.00,Wunderground v.1.15,2013-03-29 10:36:00,
2013-03-29 06:40:00,31.4,28.8,29.92,SE,124,0.0,0.0,90,0.00,,,0.00,Wunderground v.1.15,2013-03-29 10:40:00,
2013-03-29 06:42:00,31.4,28.8,29.92,SE,124,0.0,0.0,90,0.00,,,0.00,Wunderground v.1.15,2013-03-29 10:42:00,
2013-03-29 06:44:00,31.4,28.8,29.92,SE,124,0.0,0.0,90,0.00,,,0.00,Wunderground v.1.15,2013-03-29 10:44:00,
2013-03-29 06:45:00,31.4,28.8,29.92,SE,124,0.0,0.0,90,0.00,,,0.00,Wunderground v.1.15,2013-03-29 10:45:00,
2013-03-29 06:47:00,31.4,28.8,29.92,SE,124,0.0,0.0,90,0.00,,,0.00,Wunderground v.1.15,2013-03-29 10:47:00,
2013-03-29 06:51:00,31.4,28.8,29.92,SE,124,0.0,0.0,90,0.00,,,0.00,Wunderground v.1.15,2013-03-29 10:51:00,
2013-03-29 06:56:00,31.3,29.0,29.92,East,98,0.0,0.0,91,0.00,,,0.00,Wunderground v.1.15,2013-03-29 10:56:00,
2013-03-29 06:57:00,31.3,29.0,29.92,East,98,0.0,0.0,91,0.00,,,0.00,Wunderground v.1.15,2013-03-29 10:57:00,
2013-03-29 07:00:00,31.2,28.6,29.93,East,98,0.0,1.0,90,0.00,,,0.00,Wunderground v.1.15,2013-03-29 11:00:00,
2013-03-29 07:05:00,31.1,28.5,29.93,East,98,0.0,1.0,90,0.00,,,0.00,Wunderground v.1.15,2013-03-29 11:05:00,
2013-03-29 07:06:00,31.1,28.5,29.93,East,98,0.0,1.0,90,0.00,,,0.00,Wunderground v.1.15,2013-03-29 11:06:00,
2013-03-29 07:07:00,31.1,28.5,29.93,East,98,0.0,1.0,90,0.00,,,0.00,Wunderground v.1.15,2013-03-29 11:07:00,
2013-03-29 07:08:00,31.1,28.5,29.93,East,98,0.0,1.0,90,0.00,,,0.00,Wunderground v.1.15,2013-03-29 11:08:00,
2013-03-29 07:11:00,31.1,28.5,29.93,East,98,0.0,1.0,90,0.00,,,0.00,Wunderground v.1.15,2013-03-29 11:11:00,
2013-03-29 07:12:00,31.1,28.5,29.93,East,98,0.0,1.0,90,0.00,,,0.00,Wunderground v.1.15,2013-03-29 11:12:00,
2013-03-29 07:13:00,31.0,28.4,29.93,East,98,0.0,1.0,90,0.00,,,0.00,Wunderground v.1.15,2013-03-29 11:13:00,
2013-03-29 07:15:00,31.0,28.7,29.93,East,98,0.0,1.0,91,0.00,,,0.00,Wunderground v.1.15,2013-03-29 11:15:00,
2013-03-29 07:19:00,31.1,28.8,29.93,East,98,0.0,1.0,91,0.00,,,0.00,Wunderground v.1.15,2013-03-29 11:19:00,
2013-03-29 07:20:00,31.1,28.8,29.93,East,98,0.0,1.0,91,0.00,,,0.00,Wunderground v.1.15,2013-03-29 11:20:00,
2013-03-29 07:21:00,31.1,28.8,29.93,East,98,0.0,1.0,91,0.00,,,0.00,Wunderground v.1.15,2013-03-29 11:21:00,
2013-03-29 07:24:00,31.1,28.8,29.93,East,98,0.0,1.0,91,0.00,,,0.00,Wunderground v.1.15,2013-03-29 11:24:00,
2013-03-29 07:26:00,31.1,28.8,29.94,East,98,0.0,1.0,91,0.00,,,0.00,Wunderground v.1.15,2013-03-29 11:26:00,
2013-03-29 07:27:00,31.1,28.8,29.94,East,98,0.0,1.0,91,0.00,,,0.00,Wunderground v.1.15,2013-03-29 11:27:00,
2013-03-29 07:28:00,31.1,28.8,29.94,East,98,0.0,1.0,91,0.00,,,0.00,Wunderground v.1.15,2013-03-29 11:28:00,
2013-03-29 07:29:00,31.1,28.8,29.94,East,98,0.0,1.0,91,0.00,,,0.00,Wunderground v.1.15,2013-03-29 11:29:00,
2013-03-29 07:32:00,31.1,28.8,29.94,East,98,0.0,1.0,91,0.00,,,0.00,Wunderground v.1.15,2013-03-29 11:32:00,
2013-03-29 07:34:00,31.1,28.8,29.94,East,98,0.0,1.0,91,0.00,,,0.00,Wunderground v.1.15,2013-03-29 11:34:00,
2013-03-29 07:37:00,31.0,28.7,29.94,East,98,0.0,1.0,91,0.00,,,0.00,Wunderground v.1.15,2013-03-29 11:37:00,
2013-03-29 07:39:00,31.0,28.7,29.94,East,98,0.0,1.0,91,0.00,,,0.00,Wunderground v.1.15,2013-03-29 11:39:00,
2013-03-29 07:42:00,31.0,28.7,29.94,East,98,0.0,1.0,91,0.00,,,0.00,Wunderground v.1.15,2013-03-29 11:42:00,
2013-03-29 07:47:00,31.0,28.7,29.94,East,98,0.0,1.0,91,0.00,,,0.00,Wunderground v.1.15,2013-03-29 11:47:00,
2013-03-29 07:48:00,31.0,28.7,29.94,East,98,0.0,1.0,91,0.00,,,0.00,Wunderground v.1.15,2013-03-29 11:48:00,
2013-03-29 07:49:00,31.0,28.7,29.94,East,98,0.0,1.0,91,0.00,,,0.00,Wunderground v.1.15,2013-03-29 11:49:00,
2013-03-29 07:52:00,31.1,28.8,29.94,East,98,0.0,1.0,91,0.00,,,0.00,Wunderground v.1.15,2013-03-29 11:52:00,
2013-03-29 07:53:00,31.1,28.8,29.94,East,98,0.0,1.0,91,0.00,,,0.00,Wunderground v.1.15,2013-03-29 11:53:00,
2013-03-29 07:57:00,31.4,29.3,29.94,East,98,0.0,1.0,92,0.00,,,0.00,Wunderground v.1.15,2013-03-29 11:57:00,
2013-03-29 07:59:00,31.5,29.4,29.94,East,98,0.0,1.0,92,0.00,,,0.00,Wunderground v.1.15,2013-03-29 11:59:00,
2013-03-29 08:02:00,31.9,29.8,29.94,East,98,0.0,0.0,92,0.00,,,0.00,Wunderground v.1.15,2013-03-29 12:02:00,
2013-03-29 08:04:00,32.0,29.9,29.94,East,98,0.0,0.0,92,0.00,,,0.00,Wunderground v.1.15,2013-03-29 12:04:00,
2013-03-29 08:06:00,32.3,30.2,29.94,East,98,0.0,0.0,92,0.00,,,0.00,Wunderground v.1.15,2013-03-29 12:06:00,
2013-03-29 08:07:00,32.4,30.3,29.94,East,98,0.0,0.0,92,0.00,,,0.00,Wunderground v.1.15,2013-03-29 12:07:00,
2013-03-29 08:08:00,32.5,30.4,29.94,East,98,0.0,0.0,92,0.00,,,0.00,Wunderground v.1.15,2013-03-29 12:08:00,
2013-03-29 08:11:00,32.9,30.8,29.94,East,98,0.0,0.0,92,0.00,,,0.00,Wunderground v.1.15,2013-03-29 12:11:00,
2013-03-29 08:13:00,33.1,31.0,29.94,East,98,0.0,0.0,92,0.00,,,0.00,Wunderground v.1.15,2013-03-29 12:13:00,
2013-03-29 08:14:00,33.2,31.1,29.94,East,98,0.0,0.0,92,0.00,,,0.00,Wunderground v.1.15,2013-03-29 12:14:00,
2013-03-29 08:15:00,33.3,31.2,29.94,East,98,0.0,0.0,92,0.00,,,0.00,Wunderground v.1.15,2013-03-29 12:15:00,
2013-03-29 08:19:00,33.6,31.3,29.94,East,98,0.0,0.0,91,0.00,,,0.00,Wunderground v.1.15,2013-03-29 12:19:00,
2013-03-29 08:20:00,33.8,31.5,29.94,East,98,0.0,0.0,91,0.00,,,0.00,Wunderground v.1.15,2013-03-29 12:20:00,
2013-03-29 08:25:00,34.5,32.1,29.94,East,98,0.0,0.0,91,0.00,,,0.00,Wunderground v.1.15,2013-03-29 12:25:00,
2013-03-29 08:27:00,34.8,32.4,29.94,East,98,0.0,0.0,91,0.00,,,0.00,Wunderground v.1.15,2013-03-29 12:27:00,
2013-03-29 08:29:00,35.0,32.6,29.94,East,98,0.0,0.0,91,0.00,,,0.00,Wunderground v.1.15,2013-03-29 12:29:00,
2013-03-29 08:30:00,35.1,32.7,29.94,East,98,0.0,0.0,91,0.00,,,0.00,Wunderground v.1.15,2013-03-29 12:30:00,
2013-03-29 08:34:00,35.6,33.0,29.94,East,98,0.0,0.0,90,0.00,,,0.00,Wunderground v.1.15,2013-03-29 12:34:00,
2013-03-29 08:35:00,35.7,33.1,29.94,East,98,0.0,0.0,90,0.00,,,0.00,Wunderground v.1.15,2013-03-29 12:35:00,
2013-03-29 08:36:00,35.8,33.2,29.94,East,98,0.0,0.0,90,0.00,,,0.00,Wunderground v.1.15,2013-03-29 12:36:00,
2013-03-29 08:38:00,36.1,33.2,29.94,East,98,0.0,0.0,89,0.00,,,0.00,Wunderground v.1.15,2013-03-29 12:38:00,
2013-03-29 08:40:00,36.4,33.5,29.94,East,98,0.0,0.0,89,0.00,,,0.00,Wunderground v.1.15,2013-03-29 12:40:00,
2013-03-29 08:42:00,36.6,33.7,29.94,East,98,0.0,0.0,89,0.00,,,0.00,Wunderground v.1.15,2013-03-29 12:42:00,
2013-03-29 08:44:00,37.0,33.8,29.94,East,98,0.0,0.0,88,0.00,,,0.00,Wunderground v.1.15,2013-03-29 12:44:00,
2013-03-29 08:45:00,37.3,34.1,29.94,East,98,0.0,0.0,88,0.00,,,0.00,Wunderground v.1.15,2013-03-29 12:45:00,
2013-03-29 08:47:00,37.7,34.2,29.94,East,98,0.0,0.0,87,0.00,,,0.00,Wunderground v.1.15,2013-03-29 12:47:00,
2013-03-29 08:50:00,38.0,34.2,29.94,East,98,0.0,0.0,86,0.00,,,0.00,Wunderground v.1.15,2013-03-29 12:50:00,
2013-03-29 08:52:00,38.2,34.4,29.94,East,98,0.0,0.0,86,0.00,,,0.00,Wunderground v.1.15,2013-03-29 12:52:00,
2013-03-29 08:55:00,38.5,34.1,29.95,East,98,0.0,0.0,84,0.00,,,0.00,Wunderground v.1.15,2013-03-29 12:55:00,
2013-03-29 08:57:00,38.7,34.3,29.94,East,98,0.0,0.0,84,0.00,,,0.00,Wunderground v.1.15,2013-03-29 12:57:00,
2013-03-29 08:59:00,38.8,34.4,29.95,East,98,0.0,0.0,84,0.00,,,0.00,Wunderground v.1.15,2013-03-29 12:59:00,
2013-03-29 09:00:00,39.0,34.3,29.95,East,98,0.0,1.0,83,0.00,,,0.00,Wunderground v.1.15,2013-03-29 13:00:00,
2013-03-29 09:04:00,39.4,34.4,29.95,East,98,0.0,1.0,82,0.00,,,0.00,Wunderground v.1.15,2013-03-29 13:04:00,
2013-03-29 09:07:00,39.8,34.8,29.95,East,98,0.0,1.0,82,0.00,,,0.00,Wunderground v.1.15,2013-03-29 13:07:00,
2013-03-29 09:08:00,39.8,34.8,29.95,East,98,0.0,1.0,82,0.00,,,0.00,Wunderground v.1.15,2013-03-29 13:08:00,
2013-03-29 09:13:00,40.4,34.7,29.95,East,100,0.0,2.0,80,0.00,,,0.00,Wunderground v.1.15,2013-03-29 13:13:00,
2013-03-29 09:14:00,40.5,34.8,29.95,East,100,0.0,2.0,80,0.00,,,0.00,Wunderground v.1.15,2013-03-29 13:14:00,
2013-03-29 09:15:00,40.6,34.9,29.94,East,101,0.0,2.0,80,0.00,,,0.00,Wunderground v.1.15,2013-03-29 13:15:00,
2013-03-29 09:17:00,40.9,35.2,29.94,ESE,123,0.0,2.0,80,0.00,,,0.00,Wunderground v.1.15,2013-03-29 13:17:00,
2013-03-29 09:19:00,41.3,35.6,29.94,SE,129,0.0,2.0,80,0.00,,,0.00,Wunderground v.1.15,2013-03-29 13:19:00,
2013-03-29 09:20:00,41.4,35.4,29.95,SE,129,0.0,1.0,79,0.00,,,0.00,Wunderground v.1.15,2013-03-29 13:20:00,
2013-03-29 09:23:00,41.8,35.1,29.94,SE,130,0.0,1.0,77,0.00,,,0.00,Wunderground v.1.15,2013-03-29 13:23:00,
2013-03-29 09:24:00,42.0,35.3,29.95,SE,130,0.0,1.0,77,0.00,,,0.00,Wunderground v.1.15,2013-03-29 13:24:00,
2013-03-29 09:26:00,42.4,35.0,29.94,SE,129,0.0,1.0,75,0.00,,,0.00,Wunderground v.1.15,2013-03-29 13:26:00,
2013-03-29 09:28:00,42.7,35.0,29.94,SE,129,0.0,1.0,74,0.00,,,0.00,Wunderground v.1.15,2013-03-29 13:28:00,
2013-03-29 09:29:00,42.8,34.7,29.94,SE,128,0.0,2.0,73,0.00,,,0.00,Wunderground v.1.15,2013-03-29 13:29:00,
2013-03-29 09:32:00,43.1,34.3,29.94,SE,128,1.0,4.0,71,0.00,,,0.00,Wunderground v.1.15,2013-03-29 13:32:00,
2013-03-29 09:34:00,43.3,34.2,29.94,ESE,117,1.0,4.0,70,0.00,,,0.00,Wunderground v.1.15,2013-03-29 13:34:00,
2013-03-29 09:36:00,43.4,33.9,29.94,ESE,116,1.0,4.0,69,0.00,,,0.00,Wunderground v.1.15,2013-03-29 13:36:00,
2013-03-29 09:39:00,43.6,34.5,29.94,SE,139,2.0,4.0,70,0.00,,,0.00,Wunderground v.1.15,2013-03-29 13:39:00,
2013-03-29 09:41:00,44.0,34.8,29.94,SE,139,2.0,2.0,70,0.00,,,0.00,Wunderground v.1.15,2013-03-29 13:41:00,
2013-03-29 09:42:00,44.1,34.6,29.94,SE,139,2.0,2.0,69,0.00,,,0.00,Wunderground v.1.15,2013-03-29 13:42:00,
2013-03-29 09:44:00,44.4,34.5,29.94,SE,132,2.0,4.0,68,0.00,,,0.00,Wunderground v.1.15,2013-03-29 13:44:00,
2013-03-29 09:45:00,44.6,34.7,29.94,SE,132,1.0,4.0,68,0.00,,,0.00,Wunderground v.1.15,2013-03-29 13:45:00,
2013-03-29 09:49:00,44.7,34.0,29.94,ESE,121,1.0,4.0,66,0.00,,,0.00,Wunderground v.1.15,2013-03-29 13:49:00,
2013-03-29 09:50:00,44.7,34.0,29.94,ESE,117,1.0,1.0,66,0.00,,,0.00,Wunderground v.1.15,2013-03-29 13:50:00,
2013-03-29 09:51:00,44.8,34.1,29.94,ESE,117,1.0,1.0,66,0.00,,,0.00,Wunderground v.1.15,2013-03-29 13:51:00,
2013-03-29 09:52:00,44.8,34.1,29.94,ESE,117,1.0,1.0,66,0.00,,,0.00,Wunderground v.1.15,2013-03-29 13:52:00,
2013-03-29 09:57:00,45.0,34.3,29.94,ENE,66,1.0,4.0,66,0.00,,,0.00,Wunderground v.1.15,2013-03-29 13:57:00,
2013-03-29 09:58:00,45.1,34.4,29.94,ENE,63,1.0,4.0,66,0.00,,,0.00,Wunderground v.1.15,2013-03-29 13:58:00,
2013-03-29 09:59:00,45.2,34.5,29.94,ENE,63,1.0,4.0,66,0.00,,,0.00,Wunderground v.1.15,2013-03-29 13:59:00,
2013-03-29 10:02:00,45.5,34.4,29.94,East,98,1.0,6.0,65,0.00,,,0.00,Wunderground v.1.15,2013-03-29 14:02:00,
2013-03-29 10:04:00,45.6,34.5,29.94,ESE,104,2.0,6.0,65,0.00,,,0.00,Wunderground v.1.15,2013-03-29 14:04:00,
2013-03-29 10:08:00,45.7,34.2,29.94,SE,125,2.0,6.0,64,0.00,,,0.00,Wunderground v.1.15,2013-03-29 14:08:00,
2013-03-29 10:10:00,45.8,34.3,29.94,ESE,108,2.0,6.0,64,0.00,,,0.00,Wunderground v.1.15,2013-03-29 14:10:00,
2013-03-29 10:11:00,45.8,34.3,29.94,ESE,103,2.0,6.0,64,0.00,,,0.00,Wunderground v.1.15,2013-03-29 14:11:00,
2013-03-29 10:14:00,46.3,35.2,29.94,NNE,32,2.0,6.0,65,0.00,,,0.00,Wunderground v.1.15,2013-03-29 14:14:00,
2013-03-29 10:16:00,46.5,35.0,29.93,NE,47,1.0,6.0,64,0.00,,,0.00,Wunderground v.1.15,2013-03-29 14:16:00,
2013-03-29 10:17:00,46.6,35.1,29.94,ENE,65,1.0,6.0,64,0.00,,,0.00,Wunderground v.1.15,2013-03-29 14:17:00,
2013-03-29 10:19:00,46.9,35.4,29.94,NNE,20,1.0,6.0,64,0.00,,,0.00,Wunderground v.1.15,2013-03-29 14:19:00,
2013-03-29 10:20:00,47.0,35.4,29.93,North,11,1.0,6.0,64,0.00,,,0.00,Wunderground v.1.15,2013-03-29 14:20:00,
2013-03-29 10:21:00,47.2,35.2,29.94,NE,36,1.0,6.0,63,0.00,,,0.00,Wunderground v.1.15,2013-03-29 14:21:00,
2013-03-29 10:25:00,47.6,35.6,29.93,NE,48,0.0,6.0,63,0.00,,,0.00,Wunderground v.1.15,2013-03-29 14:25:00,
2013-03-29 10:26:00,47.8,35.0,29.93,NE,43,0.0,6.0,61,0.00,,,0.00,Wunderground v.1.15,2013-03-29 14:26:00,
2013-03-29 10:27:00,47.8,35.0,29.93,NE,43,1.0,6.0,61,0.00,,,0.00,Wunderground v.1.15,2013-03-29 14:27:00,
2013-03-29 10:30:00,48.2,35.4,29.93,NE,43,0.0,6.0,61,0.00,,,0.00,Wunderground v.1.15,2013-03-29 14:30:00,
2013-03-29 10:33:00,48.3,35.0,29.93,SSE,160,1.0,6.0,60,0.00,,,0.00,Wunderground v.1.15,2013-03-29 14:33:00,
2013-03-29 10:36:00,48.1,34.9,29.93,SSE,158,3.0,7.0,60,0.00,,,0.00,Wunderground v.1.15,2013-03-29 14:36:00,
2013-03-29 10:37:00,47.9,34.7,29.93,SSE,153,3.0,8.0,60,0.00,,,0.00,Wunderground v.1.15,2013-03-29 14:37:00,
2013-03-29 10:38:00,47.9,35.1,29.93,SE,142,4.0,8.0,61,0.00,,,0.00,Wunderground v.1.15,2013-03-29 14:38:00,
2013-03-29 10:41:00,47.8,34.6,29.93,East,94,5.0,6.0,60,0.00,,,0.00,Wunderground v.1.15,2013-03-29 14:41:00,
2013-03-29 10:45:00,47.7,34.1,29.93,East,88,4.0,6.0,59,0.00,,,0.00,Wunderground v.1.15,2013-03-29 14:45:00,
2013-03-29 10:46:00,47.8,34.6,29.93,East,96,4.0,6.0,60,0.00,,,0.00,Wunderground v.1.15,2013-03-29 14:46:00,
2013-03-29 10:47:00,47.9,34.7,29.93,East,96,3.0,6.0,60,0.00,,,0.00,Wunderground v.1.15,2013-03-29 14:47:00,
2013-03-29 10:50:00,48.1,34.9,29.93,ESE,104,1.0,1.0,60,0.00,,,0.00,Wunderground v.1.15,2013-03-29 14:50:00,
2013-03-29 10:53:00,48.5,35.7,29.93,SE,126,1.0,6.0,61,0.00,,,0.00,Wunderground v.1.15,2013-03-29 14:53:00,
2013-03-29 10:54:00,48.7,35.4,29.93,SE,124,0.0,6.0,60,0.00,,,0.00,Wunderground v.1.15,2013-03-29 14:54:00,
2013-03-29 10:56:00,49.0,35.7,29.93,SE,126,0.0,6.0,60,0.00,,,0.00,Wunderground v.1.15,2013-03-29 14:56:00,
2013-03-29 10:58:00,49.4,36.1,29.93,SE,126,0.0,6.0,60,0.00,,,0.00,Wunderground v.1.15,2013-03-29 14:58:00,
2013-03-29 11:00:00,50.0,35.8,29.93,ESE,116,0.0,10.0,58,0.00,,,0.00,Wunderground v.1.15,2013-03-29 15:00:00,
2013-03-29 11:03:00,50.1,35.0,29.93,ESE,106,0.0,10.0,56,0.00,,,0.00,Wunderground v.1.15,2013-03-29 15:03:00,
2013-03-29 11:06:00,50.3,35.6,29.93,SE,129,1.0,10.0,57,0.00,,,0.00,Wunderground v.1.15,2013-03-29 15:06:00,
2013-03-29 11:08:00,50.4,35.7,29.93,SSE,159,1.0,10.0,57,0.00,,,0.00,Wunderground v.1.15,2013-03-29 15:08:00,
2013-03-29 11:11:00,50.5,35.4,29.93,SE,132,2.0,10.0,56,0.00,,,0.00,Wunderground v.1.15,2013-03-29 15:11:00,
2013-03-29 11:12:00,50.6,35.5,29.92,SE,132,2.0,10.0,56,0.00,,,0.00,Wunderground v.1.15,2013-03-29 15:12:00,
2013-03-29 11:14:00,50.7,35.1,29.92,ESE,115,2.0,10.0,55,0.00,,,0.00,Wunderground v.1.15,2013-03-29 15:14:00,
2013-03-29 11:17:00,50.8,35.7,29.92,SSE,161,3.0,10.0,56,0.00,,,0.00,Wunderground v.1.15,2013-03-29 15:17:00,
2013-03-29 11:19:00,51.0,35.8,29.92,SSE,152,3.0,10.0,56,0.00,,,0.00,Wunderground v.1.15,2013-03-29 15:19:00,
2013-03-29 11:22:00,51.2,36.0,29.92,NE,34,3.0,10.0,56,0.00,,,0.00,Wunderground v.1.15,2013-03-29 15:22:00,
2013-03-29 11:23:00,51.3,35.2,29.92,SE,137,3.0,10.0,54,0.00,,,0.00,Wunderground v.1.15,2013-03-29 15:23:00,
2013-03-29 11:24:00,51.3,35.7,29.92,ESE,108,3.0,10.0,55,0.00,,,0.00,Wunderground v.1.15,2013-03-29 15:24:00,
2013-03-29 11:27:00,51.2,34.6,29.93,ESE,108,2.0,10.0,53,0.00,,,0.00,Wunderground v.1.15,2013-03-29 15:27:00,
2013-03-29 11:29:00,51.2,35.1,29.92,South,188,2.0,10.0,54,0.00,,,0.00,Wunderground v.1.15,2013-03-29 15:29:00,
2013-03-29 11:30:00,51.2,35.1,29.92,ESE,123,2.0,10.0,54,0.00,,,0.00,Wunderground v.1.15,2013-03-29 15:30:00,
2013-03-29 11:32:00,51.3,35.2,29.92,SE,137,2.0,10.0,54,0.00,,,0.00,Wunderground v.1.15,2013-03-29 15:32:00,
2013-03-29 11:35:00,51.7,35.6,29.92,NW,324,1.0,10.0,54,0.00,,,0.00,Wunderground v.1.15,2013-03-29 15:35:00,
2013-03-29 11:37:00,52.1,35.9,29.92,East,81,1.0,10.0,54,0.00,,,0.00,Wunderground v.1.15,2013-03-29 15:37:00,
2013-03-29 11:39:00,52.2,35.1,29.92,East,95,1.0,10.0,52,0.00,,,0.00,Wunderground v.1.15,2013-03-29 15:39:00,
2013-03-29 11:42:00,52.3,34.7,29.92,East,92,1.0,10.0,51,0.00,,,0.00,Wunderground v.1.15,2013-03-29 15:42:00,
2013-03-29 11:44:00,52.4,34.8,29.91,NE,55,1.0,10.0,51,0.00,,,0.00,Wunderground v.1.15,2013-03-29 15:44:00,
2013-03-29 11:47:00,52.5,34.4,29.92,NE,46,1.0,10.0,50,0.00,,,0.00,Wunderground v.1.15,2013-03-29 15:47:00,
2013-03-29 11:48:00,52.6,34.5,29.91,East,91,1.0,10.0,50,0.00,,,0.00,Wunderground v.1.15,2013-03-29 15:48:00,
2013-03-29 11:51:00,52.7,35.6,29.91,East,93,2.0,10.0,52,0.00,,,0.00,Wunderground v.1.15,2013-03-29 15:51:00,
2013-03-29 11:52:00,52.7,35.6,29.91,ESE,113,2.0,10.0,52,0.00,,,0.00,Wunderground v.1.15,2013-03-29 15:52:00,
2013-03-29 11:53:00,52.8,36.1,29.91,West,275,2.0,10.0,53,0.00,,,0.00,Wunderground v.1.15,2013-03-29 15:53:00,
2013-03-29 11:57:00,53.3,35.6,29.91,East,101,1.0,10.0,51,0.00,,,0.00,Wunderground v.1.15,2013-03-29 15:57:00,
2013-03-29 11:58:00,53.3,35.6,29.91,ESE,109,1.0,10.0,51,0.00,,,0.00,Wunderground v.1.15,2013-03-29 15:58:00,
2013-03-29 11:59:00,53.3,35.1,29.91,NNE,13,1.0,10.0,50,0.00,,,0.00,Wunderground v.1.15,2013-03-29 15:59:00,
2013-03-29 12:04:00,53.5,35.3,29.90,NNE,21,1.0,7.0,50,0.00,,,0.00,Wunderground v.1.15,2013-03-29 16:04:00,
2013-03-29 12:05:00,53.5,35.3,29.90,NE,46,1.0,7.0,50,0.00,,,0.00,Wunderground v.1.15,2013-03-29 16:05:00,
2013-03-29 12:08:00,53.7,35.5,29.91,SW,219,1.0,7.0,50,0.00,,,0.00,Wunderground v.1.15,2013-03-29 16:08:00,
2013-03-29 12:09:00,53.7,36.0,29.91,South,178,1.0,7.0,51,0.00,,,0.00,Wunderground v.1.15,2013-03-29 16:09:00,
2013-03-29 12:10:00,53.7,35.0,29.91,South,178,1.0,7.0,49,0.00,,,0.00,Wunderground v.1.15,2013-03-29 16:10:00,
2013-03-29 12:12:00,53.7,34.5,29.90,SSW,202,2.0,7.0,48,0.00,,,0.00,Wunderground v.1.15,2013-03-29 16:12:00,
2013-03-29 12:15:00,53.7,34.5,29.90,NNE,25,2.0,7.0,48,0.00,,,0.00,Wunderground v.1.15,2013-03-29 16:15:00,
2013-03-29 12:19:00,54.0,34.2,29.90,East,80,2.0,7.0,47,0.00,,,0.00,Wunderground v.1.15,2013-03-29 16:19:00,
2013-03-29 12:20:00,53.9,34.1,29.90,ENE,72,2.0,2.0,47,0.00,,,0.00,Wunderground v.1.15,2013-03-29 16:20:00,
2013-03-29 12:21:00,53.9,34.1,29.90,East,94,2.0,7.0,47,0.00,,,0.00,Wunderground v.1.15,2013-03-29 16:21:00,
2013-03-29 12:22:00,53.8,34.0,29.90,East,87,2.0,7.0,47,0.00,,,0.00,Wunderground v.1.15,2013-03-29 16:22:00,
2013-03-29 12:25:00,54.0,34.2,29.90,SSW,211,2.0,7.0,47,0.00,,,0.00,Wunderground v.1.15,2013-03-29 16:25:00,
2013-03-29 12:27:00,54.0,31.4,29.90,North,360,3.0,7.0,42,0.00,,,0.00,Wunderground v.1.15,2013-03-29 16:27:00,
2013-03-29 12:32:00,54.7,32.6,29.90,WSW,255,2.0,7.0,43,0.00,,,0.00,Wunderground v.1.15,2013-03-29 16:32:00,
2013-03-29 12:34:00,54.5,31.3,29.89,NW,315,4.0,8.0,41,0.00,,,0.00,Wunderground v.1.15,2013-03-29 16:34:00,
2013-03-29 12:35:00,54.4,31.8,29.89,West,275,4.0,8.0,42,0.00,,,0.00,Wunderground v.1.15,2013-03-29 16:35:00,
2013-03-29 12:39:00,54.9,32.2,29.89,WNW,300,4.0,8.0,42,0.00,,,0.00,Wunderground v.1.15,2013-03-29 16:39:00,
2013-03-29 12:40:00,54.8,32.1,29.89,WNW,302,4.0,4.0,42,0.00,,,0.00,Wunderground v.1.15,2013-03-29 16:40:00,
2013-03-29 12:42:00,55.1,34.7,29.89,NE,38,4.0,7.0,46,0.00,,,0.00,Wunderground v.1.15,2013-03-29 16:42:00,
2013-03-29 12:44:00,55.3,34.9,29.89,NE,51,3.0,7.0,46,0.00,,,0.00,Wunderground v.1.15,2013-03-29 16:44:00,
2013-03-29 12:45:00,55.6,35.1,29.89,ENE,64,2.0,7.0,46,0.00,,,0.00,Wunderground v.1.15,2013-03-29 16:45:00,
2013-03-29 12:48:00,55.8,34.2,29.89,ENE,57,2.0,7.0,44,0.00,,,0.00,Wunderground v.1.15,2013-03-29 16:48:00,
2013-03-29 12:50:00,55.7,32.3,29.89,WSW,248,2.0,8.0,41,0.00,,,0.00,Wunderground v.1.15,2013-03-29 16:50:00,
2013-03-29 12:52:00,55.0,30.5,29.89,NW,316,3.0,8.0,39,0.00,,,0.00,Wunderground v.1.15,2013-03-29 16:52:00,
2013-03-29 12:54:00,54.4,31.2,29.89,North,360,3.0,8.0,41,0.00,,,0.00,Wunderground v.1.15,2013-03-29 16:54:00,
2013-03-29 12:56:00,54.0,30.2,29.89,West,281,4.0,8.0,40,0.00,,,0.00,Wunderground v.1.15,2013-03-29 16:56:00,
2013-03-29 13:01:00,53.5,29.1,29.89,NNE,12,5.0,13.0,39,0.00,,,0.00,Wunderground v.1.15,2013-03-29 17:01:00,
2013-03-29 13:03:00,53.5,29.7,29.89,North,360,4.0,13.0,40,0.00,,,0.00,Wunderground v.1.15,2013-03-29 17:03:00,
2013-03-29 13:07:00,53.4,29.7,29.89,WNW,303,4.0,13.0,40,0.00,,,0.00,Wunderground v.1.15,2013-03-29 17:07:00,
2013-03-29 13:08:00,53.3,29.6,29.89,WNW,286,4.0,13.0,40,0.00,,,0.00,Wunderground v.1.15,2013-03-29 17:08:00,
2013-03-29 13:13:00,53.2,28.9,29.88,WNW,300,4.0,13.0,39,0.00,,,0.00,Wunderground v.1.15,2013-03-29 17:13:00,
2013-03-29 13:14:00,53.2,28.9,29.88,WNW,300,3.0,13.0,39,0.00,,,0.00,Wunderground v.1.15,2013-03-29 17:14:00,
2013-03-29 13:16:00,53.5,29.7,29.88,WSW,240,3.0,13.0,40,0.00,,,0.00,Wunderground v.1.15,2013-03-29 17:16:00,
2013-03-29 13:19:00,53.9,30.1,29.88,West,275,4.0,13.0,40,0.00,,,0.00,Wunderground v.1.15,2013-03-29 17:19:00,
2013-03-29 13:20:00,53.9,29.5,29.88,NNW,346,4.0,4.0,39,0.00,,,0.00,Wunderground v.1.15,2013-03-29 17:20:00,
2013-03-29 13:21:00,54.0,29.6,29.88,NNW,333,4.0,13.0,39,0.00,,,0.00,Wunderground v.1.15,2013-03-29 17:21:00,
2013-03-29 13:24:00,54.1,29.7,29.88,NNW,346,5.0,13.0,39,0.00,,,0.00,Wunderground v.1.15,2013-03-29 17:24:00,
2013-03-29 13:26:00,54.1,29.7,29.88,NNW,342,6.0,13.0,39,0.00,,,0.00,Wunderground v.1.15,2013-03-29 17:26:00,
2013-03-29 13:27:00,54.1,30.3,29.88,NNW,338,6.0,13.0,40,0.00,,,0.00,Wunderground v.1.15,2013-03-29 17:27:00,
2013-03-29 13:29:00,54.0,29.6,29.88,WNW,302,5.0,13.0,39,0.00,,,0.00,Wunderground v.1.15,2013-03-29 17:29:00,
2013-03-29 13:31:00,53.9,29.5,29.88,WNW,303,5.0,13.0,39,0.00,,,0.00,Wunderground v.1.15,2013-03-29 17:31:00,
2013-03-29 13:33:00,53.7,29.9,29.88,NW,318,4.0,13.0,40,0.00,,,0.00,Wunderground v.1.15,2013-03-29 17:33:00,
2013-03-29 13:38:00,53.3,28.9,29.88,NNW,347,7.0,13.0,39,0.00,,,0.00,Wunderground v.1.15,2013-03-29 17:38:00,
2013-03-29 13:40:00,53.3,28.9,29.88,NW,323,7.0,7.0,39,0.00,,,0.00,Wunderground v.1.15,2013-03-29 17:40:00,
2013-03-29 13:43:00,53.1,28.8,29.88,NNW,336,8.0,13.0,39,0.00,,,0.00,Wunderground v.1.15,2013-03-29 17:43:00,
2013-03-29 13:44:00,53.0,28.7,29.88,NNE,14,8.0,13.0,39,0.00,,,0.00,Wunderground v.1.15,2013-03-29 17:44:00,
2013-03-29 13:47:00,53.8,30.0,29.88,NNW,342,8.0,13.0,40,0.00,,,0.00,Wunderground v.1.15,2013-03-29 17:47:00,
2013-03-29 13:49:00,53.9,28.2,29.88,NW,304,8.0,13.0,37,0.00,,,0.00,Wunderground v.1.15,2013-03-29 17:49:00,
2013-03-29 13:53:00,54.0,28.3,29.88,NNW,348,7.0,13.0,37,0.00,,,0.00,Wunderground v.1.15,2013-03-29 17:53:00,
2013-03-29 13:54:00,54.0,28.3,29.88,NNW,347,7.0,13.0,37,0.00,,,0.00,Wunderground v.1.15,2013-03-29 17:54:00,
2013-03-29 13:57:00,54.0,28.9,29.88,NW,306,6.0,13.0,38,0.00,,,0.00,Wunderground v.1.15,2013-03-29 17:57:00,
2013-03-29 13:58:00,54.1,29.0,29.88,NW,324,5.0,13.0,38,0.00,,,0.00,Wunderground v.1.15,2013-03-29 17:58:00,
2013-03-29 13:59:00,54.1,28.4,29.88,NW,321,5.0,13.0,37,0.00,,,0.00,Wunderground v.1.15,2013-03-29 17:59:00,
2013-03-29 14:00:00,54.2,28.5,29.88,WNW,294,5.0,17.0,37,0.00,,,0.00,Wunderground v.1.15,2013-03-29 18:00:00,
2013-03-29 14:02:00,53.8,28.1,29.88,West,269,6.0,17.0,37,0.00,,,0.00,Wunderground v.1.15,2013-03-29 18:02:00,
2013-03-29 14:05:00,53.3,28.3,29.88,NNW,329,6.0,17.0,38,0.00,,,0.00,Wunderground v.1.15,2013-03-29 18:05:00,
2013-03-29 14:07:00,53.2,28.9,29.87,WNW,286,6.0,17.0,39,0.00,,,0.00,Wunderground v.1.15,2013-03-29 18:07:00,
2013-03-29 14:08:00,53.2,28.2,29.87,NNW,341,7.0,17.0,38,0.00,,,0.00,Wunderground v.1.15,2013-03-29 18:08:00,
2013-03-29 14:09:00,53.2,28.2,29.87,NW,318,6.0,17.0,38,0.00,,,0.00,Wunderground v.1.15,2013-03-29 18:09:00,
2013-03-29 14:10:00,53.2,28.9,29.87,WNW,298,6.0,6.0,39,0.00,,,0.00,Wunderground v.1.15,2013-03-29 18:10:00,
2013-03-29 14:16:00,52.6,28.9,29.87,NNW,329,6.0,17.0,40,0.00,,,0.00,Wunderground v.1.15,2013-03-29 18:16:00,
2013-03-29 14:20:00,52.7,29.0,29.87,NNW,331,6.0,6.0,40,0.00,,,0.00,Wunderground v.1.15,2013-03-29 18:20:00,
2013-03-29 14:23:00,52.8,28.5,29.87,NNW,329,5.0,17.0,39,0.00,,,0.00,Wunderground v.1.15,2013-03-29 18:23:00,
2013-03-29 14:24:00,52.8,28.5,29.87,NW,308,5.0,17.0,39,0.00,,,0.00,Wunderground v.1.15,2013-03-29 18:24:00,
2013-03-29 14:29:00,52.4,28.8,29.87,NNW,346,5.0,17.0,40,0.00,,,0.00,Wunderground v.1.15,2013-03-29 18:29:00,
2013-03-29 14:30:00,52.4,28.8,29.87,NNW,330,5.0,17.0,40,0.00,,,0.00,Wunderground v.1.15,2013-03-29 18:30:00,
2013-03-29 14:31:00,52.4,28.8,29.87,NNW,346,5.0,17.0,40,0.00,,,0.00,Wunderground v.1.15,2013-03-29 18:31:00,
2013-03-29 14:36:00,52.3,28.1,29.87,NNW,348,6.0,17.0,39,0.00,,,0.00,Wunderground v.1.15,2013-03-29 18:36:00,
2013-03-29 14:37:00,52.3,28.7,29.87,NNW,332,6.0,17.0,40,0.00,,,0.00,Wunderground v.1.15,2013-03-29 18:37:00,
2013-03-29 14:38:00,52.3,28.1,29.87,NNW,340,6.0,17.0,39,0.00,,,0.00,Wunderground v.1.15,2013-03-29 18:38:00,
2013-03-29 14:40:00,52.4,28.8,29.87,NNW,334,7.0,7.0,40,0.00,,,0.00,Wunderground v.1.15,2013-03-29 18:40:00,
2013-03-29 14:42:00,52.5,28.8,29.87,NW,321,8.0,17.0,40,0.00,,,0.00,Wunderground v.1.15,2013-03-29 18:42:00,
2013-03-29 14:43:00,52.5,28.2,29.87,West,280,8.0,17.0,39,0.00,,,0.00,Wunderground v.1.15,2013-03-29 18:43:00,
2013-03-29 14:48:00,52.5,28.8,29.87,WNW,294,7.0,17.0,40,0.00,,,0.00,Wunderground v.1.15,2013-03-29 18:48:00,
2013-03-29 14:49:00,52.5,28.8,29.87,NE,36,7.0,17.0,40,0.00,,,0.00,Wunderground v.1.15,2013-03-29 18:49:00,
2013-03-29 14:53:00,52.1,28.5,29.87,NNW,343,7.0,17.0,40,0.00,,,0.00,Wunderground v.1.15,2013-03-29 18:53:00,
2013-03-29 14:55:00,52.0,28.4,29.87,North,351,6.0,17.0,40,0.00,,,0.00,Wunderground v.1.15,2013-03-29 18:55:00,
2013-03-29 14:56:00,52.0,28.4,29.87,NNW,329,6.0,17.0,40,0.00,,,0.00,Wunderground v.1.15,2013-03-29 18:56:00,
2013-03-29 14:58:00,51.9,28.3,29.87,WNW,301,6.0,17.0,40,0.00,,,0.00,Wunderground v.1.15,2013-03-29 18:58:00,
2013-03-29 15:00:00,51.8,28.2,29.87,NNW,329,6.0,16.0,40,0.00,,,0.00,Wunderground v.1.15,2013-03-29 19:00:00,
2013-03-29 15:03:00,51.7,28.1,29.87,West,269,6.0,16.0,40,0.00,,,0.00,Wunderground v.1.15,2013-03-29 19:03:00,
2013-03-29 15:06:00,51.7,28.1,29.87,NW,321,7.0,16.0,40,0.00,,,0.00,Wunderground v.1.15,2013-03-29 19:06:00,
2013-03-29 15:08:00,51.7,28.1,29.87,NNW,338,7.0,16.0,40,0.00,,,0.00,Wunderground v.1.15,2013-03-29 19:08:00,
2013-03-29 15:10:00,51.7,28.1,29.86,NNW,344,7.0,7.0,40,0.00,,,0.00,Wunderground v.1.15,2013-03-29 19:10:00,
2013-03-29 15:11:00,51.8,28.2,29.87,NNW,346,6.0,16.0,40,0.00,,,0.00,Wunderground v.1.15,2013-03-29 19:11:00,
2013-03-29 15:12:00,51.8,28.8,29.87,NNW,338,6.0,16.0,41,0.00,,,0.00,Wunderground v.1.15,2013-03-29 19:12:00,
2013-03-29 15:15:00,52.0,29.0,29.87,North,355,5.0,16.0,41,0.00,,,0.00,Wunderground v.1.15,2013-03-29 19:15:00,
2013-03-29 15:16:00,51.9,28.3,29.87,NW,321,6.0,16.0,40,0.00,,,0.00,Wunderground v.1.15,2013-03-29 19:16:00,
2013-03-29 15:21:00,51.6,28.6,29.87,WNW,296,7.0,16.0,41,0.00,,,0.00,Wunderground v.1.15,2013-03-29 19:21:00,
2013-03-29 15:23:00,51.5,28.6,29.87,NNW,327,7.0,16.0,41,0.00,,,0.00,Wunderground v.1.15,2013-03-29 19:23:00,
2013-03-29 15:24:00,51.5,28.6,29.87,NW,326,7.0,16.0,41,0.00,,,0.00,Wunderground v.1.15,2013-03-29 19:24:00,
2013-03-29 15:27:00,51.5,28.6,29.87,NW,318,7.0,16.0,41,0.00,,,0.00,Wunderground v.1.15,2013-03-29 19:27:00,
2013-03-29 15:28:00,51.6,28.6,29.87,NW,325,7.0,16.0,41,0.00,,,0.00,Wunderground v.1.15,2013-03-29 19:28:00,
2013-03-29 15:29:00,51.6,28.6,29.87,WNW,299,7.0,16.0,41,0.00,,,0.00,Wunderground v.1.15,2013-03-29 19:29:00,
2013-03-29 15:33:00,51.5,28.6,29.87,NNW,344,7.0,16.0,41,0.00,,,0.00,Wunderground v.1.15,2013-03-29 19:33:00,
2013-03-29 15:35:00,51.6,28.6,29.87,WNW,294,7.0,16.0,41,0.00,,,0.00,Wunderground v.1.15,2013-03-29 19:35:00,
2013-03-29 15:37:00,51.4,28.5,29.86,West,263,6.0,16.0,41,0.00,,,0.00,Wunderground v.1.15,2013-03-29 19:37:00,
2013-03-29 15:39:00,51.2,28.3,29.87,NW,321,7.0,16.0,41,0.00,,,0.00,Wunderground v.1.15,2013-03-29 19:39:00,
2013-03-29 15:42:00,51.3,28.4,29.87,NNW,338,7.0,16.0,41,0.00,,,0.00,Wunderground v.1.15,2013-03-29 19:42:00,
2013-03-29 15:44:00,51.3,28.4,29.87,WSW,250,7.0,16.0,41,0.00,,,0.00,Wunderground v.1.15,2013-03-29 19:44:00,
2013-03-29 15:46:00,51.2,28.3,29.86,WNW,287,7.0,16.0,41,0.00,,,0.00,Wunderground v.1.15,2013-03-29 19:46:00,
2013-03-29 15:47:00,51.2,28.3,29.86,WNW,292,7.0,16.0,41,0.00,,,0.00,Wunderground v.1.15,2013-03-29 19:47:00,
2013-03-29 15:48:00,51.2,28.9,29.87,WNW,286,7.0,16.0,42,0.00,,,0.00,Wunderground v.1.15,2013-03-29 19:48:00,
2013-03-29 15:49:00,51.1,28.8,29.87,NNW,344,7.0,16.0,42,0.00,,,0.00,Wunderground v.1.15,2013-03-29 19:49:00,
2013-03-29 15:53:00,50.9,29.7,29.87,WNW,303,7.0,16.0,44,0.00,,,0.00,Wunderground v.1.15,2013-03-29 19:53:00,
2013-03-29 15:54:00,50.8,29.1,29.87,West,269,7.0,16.0,43,0.00,,,0.00,Wunderground v.1.15,2013-03-29 19:54:00,
2013-03-29 15:55:00,50.7,29.6,29.86,West,278,7.0,16.0,44,0.00,,,0.00,Wunderground v.1.15,2013-03-29 19:55:00,
2013-03-29 16:00:00,50.6,30.6,29.87,NNW,336,7.0,7.0,46,0.00,,,0.00,Wunderground v.1.15,2013-03-29 20:00:00,
2013-03-29 16:03:00,50.6,30.0,29.87,NW,321,7.0,14.0,45,0.00,,,0.00,Wunderground v.1.15,2013-03-29 20:03:00,
2013-03-29 16:07:00,50.7,30.1,29.87,NNW,333,6.0,14.0,45,0.00,,,0.00,Wunderground v.1.15,2013-03-29 20:07:00,
2013-03-29 16:08:00,50.6,30.0,29.87,NNW,327,7.0,14.0,45,0.00,,,0.00,Wunderground v.1.15,2013-03-29 20:08:00,
2013-03-29 16:10:00,50.5,29.9,29.87,NNW,335,8.0,14.0,45,0.00,,,0.00,Wunderground v.1.15,2013-03-29 20:10:00,
2013-03-29 16:12:00,50.5,29.9,29.87,NW,314,8.0,14.0,45,0.00,,,0.00,Wunderground v.1.15,2013-03-29 20:12:00,
2013-03-29 16:14:00,50.5,29.9,29.87,NW,321,8.0,14.0,45,0.00,,,0.00,Wunderground v.1.15,2013-03-29 20:14:00,
2013-03-29 16:17:00,50.4,29.8,29.87,NNW,346,7.0,14.0,45,0.00,,,0.00,Wunderground v.1.15,2013-03-29 20:17:00,
2013-03-29 16:22:00,50.5,31.0,29.87,NW,316,5.0,14.0,47,0.00,,,0.00,Wunderground v.1.15,2013-03-29 20:22:00,
2013-03-29 16:23:00,50.5,31.0,29.87,West,263,5.0,14.0,47,0.00,,,0.00,Wunderground v.1.15,2013-03-29 20:23:00,
2013-03-29 16:24:00,50.5,31.0,29.87,NNE,15,5.0,14.0,47,0.00,,,0.00,Wunderground v.1.15,2013-03-29 20:24:00,
2013-03-29 16:28:00,50.3,30.8,29.87,NW,319,6.0,14.0,47,0.00,,,0.00,Wunderground v.1.15,2013-03-29 20:28:00,
2013-03-29 16:29:00,50.1,30.6,29.87,West,263,6.0,14.0,47,0.00,,,0.00,Wunderground v.1.15,2013-03-29 20:29:00,
2013-03-29 16:33:00,49.6,30.7,29.87,WSW,246,8.0,14.0,48,0.00,,,0.00,Wunderground v.1.15,2013-03-29 20:33:00,
2013-03-29 16:35:00,49.4,30.5,29.88,NW,317,8.0,14.0,48,0.00,,,0.00,Wunderground v.1.15,2013-03-29 20:35:00,
2013-03-29 16:37:00,49.2,30.3,29.88,NW,320,8.0,14.0,48,0.00,,,0.00,Wunderground v.1.15,2013-03-29 20:37:00,
2013-03-29 16:38:00,49.1,30.7,29.88,NNW,332,8.0,14.0,49,0.00,,,0.00,Wunderground v.1.15,2013-03-29 20:38:00,
2013-03-29 16:39:00,49.1,30.7,29.88,NW,305,7.0,14.0,49,0.00,,,0.00,Wunderground v.1.15,2013-03-29 20:39:00,
2013-03-29 16:42:00,48.8,31.0,29.88,NNW,342,7.0,14.0,50,0.00,,,0.00,Wunderground v.1.15,2013-03-29 20:42:00,
2013-03-29 16:47:00,48.5,30.7,29.88,North,355,6.0,14.0,50,0.00,,,0.00,Wunderground v.1.15,2013-03-29 20:47:00,
2013-03-29 16:48:00,48.5,30.7,29.88,West,279,6.0,14.0,50,0.00,,,0.00,Wunderground v.1.15,2013-03-29 20:48:00,
2013-03-29 16:49:00,48.4,30.6,29.88,NNW,327,6.0,14.0,50,0.00,,,0.00,Wunderground v.1.15,2013-03-29 20:49:00,
2013-03-29 16:51:00,48.3,31.0,29.88,NNW,334,5.0,14.0,51,0.00,,,0.00,Wunderground v.1.15,2013-03-29 20:51:00,
2013-03-29 16:53:00,48.3,31.0,29.88,NW,323,5.0,14.0,51,0.00,,,0.00,Wunderground v.1.15,2013-03-29 20:53:00,
2013-03-29 16:54:00,48.3,31.0,29.88,North,5,5.0,14.0,51,0.00,,,0.00,Wunderground v.1.15,2013-03-29 20:54:00,
2013-03-29 16:55:00,48.2,30.9,29.88,WNW,284,5.0,14.0,51,0.00,,,0.00,Wunderground v.1.15,2013-03-29 20:55:00,
2013-03-29 17:00:00,48.2,31.4,29.88,WNW,303,5.0,15.0,52,0.00,,,0.00,Wunderground v.1.15,2013-03-29 21:00:00,
2013-03-29 17:02:00,48.2,30.9,29.88,SW,233,5.0,15.0,51,0.00,,,0.00,Wunderground v.1.15,2013-03-29 21:02:00,
2013-03-29 17:03:00,48.2,31.4,29.88,NW,315,5.0,15.0,52,0.00,,,0.00,Wunderground v.1.15,2013-03-29 21:03:00,
2013-03-29 17:05:00,48.1,31.3,29.88,WNW,302,5.0,15.0,52,0.00,,,0.00,Wunderground v.1.15,2013-03-29 21:05:00,
2013-03-29 17:08:00,48.2,31.4,29.88,West,273,5.0,15.0,52,0.00,,,0.00,Wunderground v.1.15,2013-03-29 21:08:00,
2013-03-29 17:09:00,48.2,31.4,29.88,WNW,300,5.0,15.0,52,0.00,,,0.00,Wunderground v.1.15,2013-03-29 21:09:00,
2013-03-29 17:13:00,48.1,31.3,29.88,WNW,286,4.0,15.0,52,0.00,,,0.00,Wunderground v.1.15,2013-03-29 21:13:00,
2013-03-29 17:15:00,48.1,31.8,29.89,NNW,338,4.0,15.0,53,0.00,,,0.00,Wunderground v.1.15,2013-03-29 21:15:00,
2013-03-29 17:17:00,48.2,31.9,29.88,WNW,297,4.0,15.0,53,0.00,,,0.00,Wunderground v.1.15,2013-03-29 21:17:00,
2013-03-29 17:18:00,48.2,31.9,29.88,North,355,4.0,15.0,53,0.00,,,0.00,Wunderground v.1.15,2013-03-29 21:18:00,
2013-03-29 17:20:00,48.2,31.9,29.89,NNW,341,4.0,15.0,53,0.00,,,0.00,Wunderground v.1.15,2013-03-29 21:20:00,
2013-03-29 17:23:00,48.3,31.9,29.89,NNW,347,4.0,15.0,53,0.00,,,0.00,Wunderground v.1.15,2013-03-29 21:23:00,
2013-03-29 17:25:00,48.3,31.9,29.89,WNW,288,4.0,15.0,53,0.00,,,0.00,Wunderground v.1.15,2013-03-29 21:25:00,
2013-03-29 17:29:00,48.1,31.8,29.89,NNW,343,4.0,15.0,53,0.00,,,0.00,Wunderground v.1.15,2013-03-29 21:29:00,
2013-03-29 17:30:00,48.1,31.8,29.89,NNW,331,5.0,5.0,53,0.00,,,0.00,Wunderground v.1.15,2013-03-29 21:30:00,
2013-03-29 17:31:00,48.1,31.8,29.89,NNW,339,5.0,6.0,53,0.00,,,0.00,Wunderground v.1.15,2013-03-29 21:31:00,
2013-03-29 17:32:00,48.1,31.8,29.89,NNW,340,5.0,15.0,53,0.00,,,0.00,Wunderground v.1.15,2013-03-29 21:32:00,
2013-03-29 17:35:00,48.1,31.8,29.89,NW,323,5.0,15.0,53,0.00,,,0.00,Wunderground v.1.15,2013-03-29 21:35:00,
2013-03-29 17:36:00,48.0,31.7,29.89,NW,325,5.0,15.0,53,0.00,,,0.00,Wunderground v.1.15,2013-03-29 21:36:00,
2013-03-29 17:37:00,47.9,32.0,29.89,North,350,5.0,15.0,54,0.00,,,0.00,Wunderground v.1.15,2013-03-29 21:37:00,
2013-03-29 17:40:00,47.9,32.0,29.89,NNW,344,5.0,5.0,54,0.00,,,0.00,Wunderground v.1.15,2013-03-29 21:40:00,
2013-03-29 17:42:00,47.8,31.9,29.89,NW,323,4.0,15.0,54,0.00,,,0.00,Wunderground v.1.15,2013-03-29 21:42:00,
2013-03-29 17:45:00,47.7,31.9,29.89,NW,321,4.0,15.0,54,0.00,,,0.00,Wunderground v.1.15,2013-03-29 21:45:00,
2013-03-29 17:48:00,47.7,32.3,29.89,NW,325,4.0,15.0,55,0.00,,,0.00,Wunderground v.1.15,2013-03-29 21:48:00,
2013-03-29 17:49:00,47.6,31.8,29.89,NNW,330,4.0,15.0,54,0.00,,,0.00,Wunderground v.1.15,2013-03-29 21:49:00,
2013-03-29 17:50:00,47.6,31.8,29.89,WNW,302,4.0,15.0,54,0.00,,,0.00,Wunderground v.1.15,2013-03-29 21:50:00,
2013-03-29 17:54:00,47.4,32.0,29.89,NNW,328,4.0,15.0,55,0.00,,,0.00,Wunderground v.1.15,2013-03-29 21:54:00,
2013-03-29 17:57:00,47.3,31.9,29.89,NNW,328,4.0,15.0,55,0.00,,,0.00,Wunderground v.1.15,2013-03-29 21:57:00,
2013-03-29 17:58:00,47.3,31.9,29.89,WNW,294,4.0,15.0,55,0.00,,,0.00,Wunderground v.1.15,2013-03-29 21:58:00,
2013-03-29 18:00:00,47.2,32.3,29.89,North,355,3.0,10.0,56,0.00,,,0.00,Wunderground v.1.15,2013-03-29 22:00:00,
2013-03-29 18:04:00,47.1,32.2,29.90,NW,313,4.0,10.0,56,0.00,,,0.00,Wunderground v.1.15,2013-03-29 22:04:00,
2013-03-29 18:08:00,46.9,32.0,29.90,NW,306,4.0,10.0,56,0.00,,,0.00,Wunderground v.1.15,2013-03-29 22:08:00,
2013-03-29 18:12:00,46.6,31.7,29.90,WNW,300,6.0,10.0,56,0.00,,,0.00,Wunderground v.1.15,2013-03-29 22:12:00,
2013-03-29 18:14:00,46.5,32.1,29.90,NW,306,6.0,10.0,57,0.00,,,0.00,Wunderground v.1.15,2013-03-29 22:14:00,
2013-03-29 18:15:00,46.4,32.0,29.90,West,263,7.0,10.0,57,0.00,,,0.00,Wunderground v.1.15,2013-03-29 22:15:00,
2013-03-29 18:16:00,46.3,31.9,29.90,WNW,287,7.0,10.0,57,0.00,,,0.00,Wunderground v.1.15,2013-03-29 22:16:00,
2013-03-29 18:17:00,46.3,31.9,29.90,WSW,249,7.0,10.0,57,0.00,,,0.00,Wunderground v.1.15,2013-03-29 22:17:00,
2013-03-29 18:21:00,46.1,32.1,29.90,NW,306,5.0,10.0,58,0.00,,,0.00,Wunderground v.1.15,2013-03-29 22:21:00,
2013-03-29 18:22:00,46.1,32.1,29.90,NW,326,6.0,10.0,58,0.00,,,0.00,Wunderground v.1.15,2013-03-29 22:22:00,
2013-03-29 18:23:00,46.1,32.1,29.90,NW,313,6.0,10.0,58,0.00,,,0.00,Wunderground v.1.15,2013-03-29 22:23:00,
2013-03-29 18:28:00,46.0,32.0,29.90,NNW,344,4.0,10.0,58,0.00,,,0.00,Wunderground v.1.15,2013-03-29 22:28:00,
2013-03-29 18:29:00,46.0,32.0,29.90,NNW,332,4.0,10.0,58,0.00,,,0.00,Wunderground v.1.15,2013-03-29 22:29:00,
2013-03-29 18:30:00,46.0,32.0,29.90,West,265,4.0,10.0,58,0.00,,,0.00,Wunderground v.1.15,2013-03-29 22:30:00,
2013-03-29 18:35:00,45.8,32.3,29.90,NW,308,3.0,10.0,59,0.00,,,0.00,Wunderground v.1.15,2013-03-29 22:35:00,
2013-03-29 18:38:00,45.7,32.2,29.90,WNW,297,4.0,10.0,59,0.00,,,0.00,Wunderground v.1.15,2013-03-29 22:38:00,
2013-03-29 18:39:00,45.6,32.1,29.90,NW,307,4.0,10.0,59,0.00,,,0.00,Wunderground v.1.15,2013-03-29 22:39:00,
2013-03-29 18:40:00,45.6,32.5,29.91,North,355,4.0,4.0,60,0.00,,,0.00,Wunderground v.1.15,2013-03-29 22:40:00,
2013-03-29 18:44:00,45.6,32.5,29.91,North,351,3.0,10.0,60,0.00,,,0.00,Wunderground v.1.15,2013-03-29 22:44:00,
2013-03-29 18:45:00,45.5,32.4,29.91,NW,304,4.0,10.0,60,0.00,,,0.00,Wunderground v.1.15,2013-03-29 22:45:00,
2013-03-29 18:46:00,45.5,32.4,29.90,NW,306,4.0,10.0,60,0.00,,,0.00,Wunderground v.1.15,2013-03-29 22:46:00,
2013-03-29 18:52:00,45.2,32.5,29.90,WSW,248,4.0,10.0,61,0.00,,,0.00,Wunderground v.1.15,2013-03-29 22:52:00,
2013-03-29 18:53:00,45.2,32.5,29.90,NW,311,4.0,10.0,61,0.00,,,0.00,Wunderground v.1.15,2013-03-29 22:53:00,
2013-03-29 18:55:00,45.2,32.5,29.90,NW,308,4.0,10.0,61,0.00,,,0.00,Wunderground v.1.15,2013-03-29 22:55:00,
2013-03-29 18:58:00,45.1,32.4,29.90,WNW,290,3.0,10.0,61,0.00,,,0.00,Wunderground v.1.15,2013-03-29 22:58:00,
2013-03-29 18:59:00,45.0,32.8,29.90,West,269,3.0,10.0,62,0.00,,,0.00,Wunderground v.1.15,2013-03-29 22:59:00,
2013-03-29 19:00:00,45.0,32.8,29.90,WNW,284,2.0,2.0,62,0.00,,,0.00,Wunderground v.1.15,2013-03-29 23:00:00,
2013-03-29 19:03:00,44.9,32.7,29.91,WNW,289,2.0,12.0,62,0.00,,,0.00,Wunderground v.1.15,2013-03-29 23:03:00,
2013-03-29 19:07:00,44.8,32.6,29.90,West,265,2.0,12.0,62,0.00,,,0.00,Wunderground v.1.15,2013-03-29 23:07:00,
2013-03-29 19:09:00,44.8,32.6,29.91,WNW,295,2.0,12.0,62,0.00,,,0.00,Wunderground v.1.15,2013-03-29 23:09:00,
2013-03-29 19:10:00,44.9,32.7,29.91,NNW,342,3.0,3.0,62,0.00,,,0.00,Wunderground v.1.15,2013-03-29 23:10:00,
2013-03-29 19:13:00,44.7,32.5,29.91,WNW,294,3.0,12.0,62,0.00,,,0.00,Wunderground v.1.15,2013-03-29 23:13:00,
2013-03-29 19:14:00,44.7,32.5,29.91,NW,315,3.0,12.0,62,0.00,,,0.00,Wunderground v.1.15,2013-03-29 23:14:00,
2013-03-29 19:16:00,44.7,32.5,29.91,NNW,346,3.0,12.0,62,0.00,,,0.00,Wunderground v.1.15,2013-03-29 23:16:00,
2013-03-29 19:17:00,44.7,32.5,29.91,NW,304,3.0,12.0,62,0.00,,,0.00,Wunderground v.1.15,2013-03-29 23:17:00,
2013-03-29 19:20:00,44.7,32.5,29.91,NNW,330,3.0,12.0,62,0.00,,,0.00,Wunderground v.1.15,2013-03-29 23:20:00,
2013-03-29 19:22:00,44.6,32.4,29.91,NNW,333,3.0,12.0,62,0.00,,,0.00,Wunderground v.1.15,2013-03-29 23:22:00,
2013-03-29 19:24:00,44.6,32.4,29.91,NW,317,4.0,12.0,62,0.00,,,0.00,Wunderground v.1.15,2013-03-29 23:24:00,
2013-03-29 19:25:00,44.6,32.4,29.91,WNW,286,4.0,12.0,62,0.00,,,0.00,Wunderground v.1.15,2013-03-29 23:25:00,
2013-03-29 19:26:00,44.6,32.4,29.91,NNW,329,4.0,12.0,62,0.00,,,0.00,Wunderground v.1.15,2013-03-29 23:26:00,
2013-03-29 19:31:00,44.5,32.7,29.91,NW,304,4.0,12.0,63,0.00,,,0.00,Wunderground v.1.15,2013-03-29 23:31:00,
2013-03-29 19:34:00,44.5,32.7,29.91,NW,309,4.0,12.0,63,0.00,,,0.00,Wunderground v.1.15,2013-03-29 23:34:00,
2013-03-29 19:37:00,44.4,32.6,29.91,NW,305,4.0,12.0,63,0.00,,,0.00,Wunderground v.1.15,2013-03-29 23:37:00,
2013-03-29 19:38:00,44.4,32.6,29.91,NW,311,4.0,12.0,63,0.00,,,0.00,Wunderground v.1.15,2013-03-29 23:38:00,
2013-03-29 19:40:00,44.4,32.6,29.91,NW,318,3.0,12.0,63,0.00,,,0.00,Wunderground v.1.15,2013-03-29 23:40:00,
2013-03-29 19:43:00,44.3,32.5,29.91,WNW,298,2.0,12.0,63,0.00,,,0.00,Wunderground v.1.15,2013-03-29 23:43:00,
2013-03-29 19:45:00,44.3,32.5,29.91,WNW,298,2.0,12.0,63,0.00,,,0.00,Wunderground v.1.15,2013-03-29 23:45:00,
2013-03-29 19:49:00,44.3,32.5,29.91,NW,304,1.0,12.0,63,0.00,,,0.00,Wunderground v.1.15,2013-03-29 23:49:00,
2013-03-29 19:51:00,44.2,32.4,29.91,NW,304,1.0,12.0,63,0.00,,,0.00,Wunderground v.1.15,2013-03-29 23:51:00,
2013-03-29 19:53:00,44.2,32.4,29.91,NW,304,0.0,12.0,63,0.00,,,0.00,Wunderground v.1.15,2013-03-29 23:53:00,
2013-03-29 19:57:00,44.2,32.4,29.92,NW,304,0.0,12.0,63,0.00,,,0.00,Wunderground v.1.15,2013-03-29 23:57:00,
2013-03-29 19:58:00,44.2,32.4,29.92,NW,304,0.0,12.0,63,0.00,,,0.00,Wunderground v.1.15,2013-03-29 23:58:00,
2013-03-29 20:03:00,44.2,32.4,29.92,NW,304,0.0,6.0,63,0.00,,,0.00,Wunderground v.1.15,2013-03-30 00:03:00,
2013-03-29 20:04:00,44.2,32.4,29.92,NW,304,0.0,6.0,63,0.00,,,0.00,Wunderground v.1.15,2013-03-30 00:04:00,
2013-03-29 20:05:00,44.2,32.4,29.92,NW,304,0.0,6.0,63,0.00,,,0.00,Wunderground v.1.15,2013-03-30 00:05:00,
2013-03-29 20:08:00,44.2,32.4,29.92,NW,304,0.0,6.0,63,0.00,,,0.00,Wunderground v.1.15,2013-03-30 00:08:00,
2013-03-29 20:09:00,44.2,32.4,29.92,NW,304,0.0,6.0,63,0.00,,,0.00,Wunderground v.1.15,2013-03-30 00:09:00,
2013-03-29 20:11:00,44.2,32.4,29.92,NW,304,0.0,6.0,63,0.00,,,0.00,Wunderground v.1.15,2013-03-30 00:11:00,
2013-03-29 20:12:00,44.2,32.8,29.92,NW,304,0.0,6.0,64,0.00,,,0.00,Wunderground v.1.15,2013-03-30 00:12:00,
2013-03-29 20:13:00,44.2,32.4,29.92,NW,304,0.0,6.0,63,0.00,,,0.00,Wunderground v.1.15,2013-03-30 00:13:00,
2013-03-29 20:15:00,44.2,32.8,29.92,NW,304,0.0,6.0,64,0.00,,,0.00,Wunderground v.1.15,2013-03-30 00:15:00,
2013-03-29 20:18:00,44.1,32.7,29.93,NW,304,0.0,6.0,64,0.00,,,0.00,Wunderground v.1.15,2013-03-30 00:18:00,
2013-03-29 20:19:00,44.1,32.7,29.93,NW,304,0.0,6.0,64,0.00,,,0.00,Wunderground v.1.15,2013-03-30 00:19:00,
2013-03-29 20:23:00,44.1,32.7,29.93,NW,304,0.0,6.0,64,0.00,,,0.00,Wunderground v.1.15,2013-03-30 00:23:00,
2013-03-29 20:24:00,44.1,32.7,29.93,NW,304,0.0,6.0,64,0.00,,,0.00,Wunderground v.1.15,2013-03-30 00:24:00,
2013-03-29 20:25:00,44.1,32.7,29.93,NW,304,0.0,6.0,64,0.00,,,0.00,Wunderground v.1.15,2013-03-30 00:25:00,
2013-03-29 20:29:00,44.1,32.7,29.93,NW,304,0.0,6.0,64,0.00,,,0.00,Wunderground v.1.15,2013-03-30 00:29:00,
2013-03-29 20:32:00,44.1,32.7,29.93,NW,304,0.0,6.0,64,0.00,,,0.00,Wunderground v.1.15,2013-03-30 00:32:00,
2013-03-29 20:34:00,44.0,32.6,29.93,NW,304,0.0,6.0,64,0.00,,,0.00,Wunderground v.1.15,2013-03-30 00:34:00,
2013-03-29 20:35:00,44.0,32.6,29.93,NW,304,0.0,6.0,64,0.00,,,0.00,Wunderground v.1.15,2013-03-30 00:35:00,
2013-03-29 20:36:00,44.0,32.6,29.93,NW,304,0.0,6.0,64,0.00,,,0.00,Wunderground v.1.15,2013-03-30 00:36:00,
2013-03-29 20:41:00,44.0,32.6,29.93,NW,304,0.0,6.0,64,0.00,,,0.00,Wunderground v.1.15,2013-03-30 00:41:00,
2013-03-29 20:42:00,43.9,32.5,29.93,NW,304,0.0,6.0,64,0.00,,,0.00,Wunderground v.1.15,2013-03-30 00:42:00,
2013-03-29 20:45:00,43.8,32.4,29.93,NW,304,0.0,6.0,64,0.00,,,0.00,Wunderground v.1.15,2013-03-30 00:45:00,
2013-03-29 20:47:00,43.8,32.4,29.93,NW,304,0.0,6.0,64,0.00,,,0.00,Wunderground v.1.15,2013-03-30 00:47:00,
2013-03-29 20:48:00,43.8,32.4,29.93,NW,304,0.0,6.0,64,0.00,,,0.00,Wunderground v.1.15,2013-03-30 00:48:00,
2013-03-29 20:52:00,43.7,32.3,29.94,NNW,338,1.0,6.0,64,0.00,,,0.00,Wunderground v.1.15,2013-03-30 00:52:00,
2013-03-29 20:53:00,43.7,32.3,29.94,NNW,338,1.0,6.0,64,0.00,,,0.00,Wunderground v.1.15,2013-03-30 00:53:00,
2013-03-29 20:55:00,43.7,32.3,29.94,NNW,338,1.0,6.0,64,0.00,,,0.00,Wunderground v.1.15,2013-03-30 00:55:00,
2013-03-29 20:58:00,43.7,32.3,29.94,NNW,338,1.0,6.0,64,0.00,,,0.00,Wunderground v.1.15,2013-03-30 00:58:00,
2013-03-29 21:00:00,43.7,32.3,29.94,NNW,338,1.0,1.0,64,0.00,,,0.00,Wunderground v.1.15,2013-03-30 01:00:00,
2013-03-29 21:02:00,43.7,32.3,29.94,NNW,338,1.0,2.0,64,0.00,,,0.00,Wunderground v.1.15,2013-03-30 01:02:00,
2013-03-29 21:03:00,43.6,32.2,29.94,NNW,338,1.0,4.0,64,0.00,,,0.00,Wunderground v.1.15,2013-03-30 01:03:00,
2013-03-29 21:04:00,43.6,32.2,29.94,NNW,338,1.0,4.0,64,0.00,,,0.00,Wunderground v.1.15,2013-03-30 01:04:00,
2013-03-29 21:09:00,43.5,32.5,29.94,NNW,331,1.0,4.0,65,0.00,,,0.00,Wunderground v.1.15,2013-03-30 01:09:00,
2013-03-29 21:10:00,43.5,32.5,29.94,NNW,328,1.0,3.0,65,0.00,,,0.00,Wunderground v.1.15,2013-03-30 01:10:00,
2013-03-29 21:12:00,43.4,32.4,29.94,NW,323,1.0,3.0,65,0.00,,,0.00,Wunderground v.1.15,2013-03-30 01:12:00,
2013-03-29 21:14:00,43.4,32.4,29.94,NNW,333,1.0,3.0,65,0.00,,,0.00,Wunderground v.1.15,2013-03-30 01:14:00,
2013-03-29 21:17:00,43.3,32.3,29.94,WNW,287,1.0,3.0,65,0.00,,,0.00,Wunderground v.1.15,2013-03-30 01:17:00,
2013-03-29 21:18:00,43.2,32.2,29.94,WNW,294,1.0,4.0,65,0.00,,,0.00,Wunderground v.1.15,2013-03-30 01:18:00,
2013-03-29 21:19:00,43.2,32.2,29.94,WNW,294,1.0,4.0,65,0.00,,,0.00,Wunderground v.1.15,2013-03-30 01:19:00,
2013-03-29 21:24:00,43.1,32.5,29.94,NW,308,2.0,5.0,66,0.00,,,0.00,Wunderground v.1.15,2013-03-30 01:24:00,
2013-03-29 21:25:00,43.1,32.1,29.94,WNW,283,2.0,5.0,65,0.00,,,0.00,Wunderground v.1.15,2013-03-30 01:25:00,
2013-03-29 21:28:00,43.1,32.5,29.94,NW,314,2.0,5.0,66,0.00,,,0.00,Wunderground v.1.15,2013-03-30 01:28:00,
2013-03-29 21:29:00,43.1,32.5,29.94,NW,314,2.0,5.0,66,0.00,,,0.00,Wunderground v.1.15,2013-03-30 01:29:00,
2013-03-29 21:33:00,43.0,32.4,29.94,NW,304,2.0,3.0,66,0.00,,,0.00,Wunderground v.1.15,2013-03-30 01:33:00,
2013-03-29 21:34:00,43.0,32.4,29.94,NW,304,2.0,3.0,66,0.00,,,0.00,Wunderground v.1.15,2013-03-30 01:34:00,
2013-03-29 21:37:00,43.0,32.4,29.94,NW,304,1.0,3.0,66,0.00,,,0.00,Wunderground v.1.15,2013-03-30 01:37:00,
2013-03-29 21:38:00,43.0,32.4,29.94,NW,315,1.0,3.0,66,0.00,,,0.00,Wunderground v.1.15,2013-03-30 01:38:00,
2013-03-29 21:40:00,42.9,32.3,29.94,NW,315,1.0,1.0,66,0.00,,,0.00,Wunderground v.1.15,2013-03-30 01:40:00,
2013-03-29 21:42:00,42.9,32.3,29.94,NW,315,1.0,2.0,66,0.00,,,0.00,Wunderground v.1.15,2013-03-30 01:42:00,
2013-03-29 21:44:00,42.9,32.3,29.94,NW,315,0.0,2.0,66,0.00,,,0.00,Wunderground v.1.15,2013-03-30 01:44:00,
2013-03-29 21:46:00,42.9,32.3,29.94,NW,315,1.0,2.0,66,0.00,,,0.00,Wunderground v.1.15,2013-03-30 01:46:00,
2013-03-29 21:48:00,42.9,32.3,29.94,NW,315,0.0,2.0,66,0.00,,,0.00,Wunderground v.1.15,2013-03-30 01:48:00,
2013-03-29 21:50:00,42.8,32.2,29.94,West,275,1.0,2.0,66,0.00,,,0.00,Wunderground v.1.15,2013-03-30 01:50:00,
2013-03-29 21:51:00,42.8,32.2,29.94,West,276,1.0,2.0,66,0.00,,,0.00,Wunderground v.1.15,2013-03-30 01:51:00,
2013-03-29 21:52:00,42.8,32.2,29.94,West,276,1.0,2.0,66,0.00,,,0.00,Wunderground v.1.15,2013-03-30 01:52:00,
2013-03-29 21:57:00,42.7,32.1,29.94,NW,304,1.0,2.0,66,0.00,,,0.00,Wunderground v.1.15,2013-03-30 01:57:00,
2013-03-29 21:58:00,42.7,32.1,29.94,WNW,300,1.0,3.0,66,0.00,,,0.00,Wunderground v.1.15,2013-03-30 01:58:00,
2013-03-29 22:00:00,42.6,32.0,29.94,WNW,284,1.0,4.0,66,0.00,,,0.00,Wunderground v.1.15,2013-03-30 02:00:00,
2013-03-29 22:01:00,42.6,32.0,29.94,WNW,284,1.0,4.0,66,0.00,,,0.00,Wunderground v.1.15,2013-03-30 02:01:00,
2013-03-29 22:04:00,42.5,32.3,29.94,WNW,282,1.0,4.0,67,0.00,,,0.00,Wunderground v.1.15,2013-03-30 02:04:00,
2013-03-29 22:06:00,42.5,32.3,29.94,WNW,284,1.0,4.0,67,0.00,,,0.00,Wunderground v.1.15,2013-03-30 02:06:00,
2013-03-29 22:08:00,42.4,32.2,29.94,WNW,284,1.0,4.0,67,0.00,,,0.00,Wunderground v.1.15,2013-03-30 02:08:00,
2013-03-29 22:09:00,42.4,32.2,29.94,WNW,284,1.0,4.0,67,0.00,,,0.00,Wunderground v.1.15,2013-03-30 02:09:00,
2013-03-29 22:11:00,42.4,32.2,29.94,WNW,294,1.0,4.0,67,0.00,,,0.00,Wunderground v.1.15,2013-03-30 02:11:00,
2013-03-29 22:13:00,42.3,32.1,29.94,WNW,293,1.0,4.0,67,0.00,,,0.00,Wunderground v.1.15,2013-03-30 02:13:00,
2013-03-29 22:14:00,42.3,32.1,29.94,WNW,293,0.0,4.0,67,0.00,,,0.00,Wunderground v.1.15,2013-03-30 02:14:00,
2013-03-29 22:16:00,42.2,32.0,29.94,WNW,293,0.0,4.0,67,0.00,,,0.00,Wunderground v.1.15,2013-03-30 02:16:00,
2013-03-29 22:19:00,42.2,32.4,29.94,WNW,293,1.0,4.0,68,0.00,,,0.00,Wunderground v.1.15,2013-03-30 02:19:00,
2013-03-29 22:20:00,42.2,32.4,29.94,WNW,293,1.0,1.0,68,0.00,,,0.00,Wunderground v.1.15,2013-03-30 02:20:00,
2013-03-29 22:22:00,42.1,32.3,29.94,WNW,293,1.0,4.0,68,0.00,,,0.00,Wunderground v.1.15,2013-03-30 02:22:00,
2013-03-29 22:24:00,42.1,32.3,29.94,WNW,293,1.0,4.0,68,0.00,,,0.00,Wunderground v.1.15,2013-03-30 02:24:00,
2013-03-29 22:27:00,42.0,32.2,29.94,WNW,292,0.0,4.0,68,0.00,,,0.00,Wunderground v.1.15,2013-03-30 02:27:00,
2013-03-29 22:28:00,42.0,32.2,29.94,WNW,292,0.0,4.0,68,0.00,,,0.00,Wunderground v.1.15,2013-03-30 02:28:00,
2013-03-29 22:32:00,42.0,32.2,29.94,WNW,297,0.0,4.0,68,0.00,,,0.00,Wunderground v.1.15,2013-03-30 02:32:00,
2013-03-29 22:33:00,42.0,32.2,29.94,WNW,297,0.0,4.0,68,0.00,,,0.00,Wunderground v.1.15,2013-03-30 02:33:00,
2013-03-29 22:34:00,42.0,32.2,29.94,WNW,297,0.0,4.0,68,0.00,,,0.00,Wunderground v.1.15,2013-03-30 02:34:00,
2013-03-29 22:39:00,42.0,32.2,29.94,WNW,297,0.0,4.0,68,0.00,,,0.00,Wunderground v.1.15,2013-03-30 02:39:00,
2013-03-29 22:40:00,41.9,32.1,29.94,WNW,297,0.0,4.0,68,0.00,,,0.00,Wunderground v.1.15,2013-03-30 02:40:00,
2013-03-29 22:42:00,41.9,32.1,29.94,WNW,297,0.0,4.0,68,0.00,,,0.00,Wunderground v.1.15,2013-03-30 02:42:00,
2013-03-29 22:44:00,41.9,32.1,29.94,WNW,297,0.0,4.0,68,0.00,,,0.00,Wunderground v.1.15,2013-03-30 02:44:00,
2013-03-29 22:45:00,41.9,32.1,29.94,WNW,297,0.0,4.0,68,0.00,,,0.00,Wunderground v.1.15,2013-03-30 02:45:00,
2013-03-29 22:47:00,41.9,32.1,29.94,WNW,297,0.0,4.0,68,0.00,,,0.00,Wunderground v.1.15,2013-03-30 02:47:00,
2013-03-29 22:49:00,41.8,32.0,29.94,WNW,297,0.0,4.0,68,0.00,,,0.00,Wunderground v.1.15,2013-03-30 02:49:00,
2013-03-29 22:52:00,41.8,32.0,29.94,WNW,297,0.0,4.0,68,0.00,,,0.00,Wunderground v.1.15,2013-03-30 02:52:00,
2013-03-29 22:53:00,41.7,32.3,29.94,WNW,297,0.0,4.0,69,0.00,,,0.00,Wunderground v.1.15,2013-03-30 02:53:00,
2013-03-29 22:55:00,41.6,32.2,29.94,WNW,297,0.0,4.0,69,0.00,,,0.00,Wunderground v.1.15,2013-03-30 02:55:00,
2013-03-29 22:56:00,41.6,32.2,29.94,WNW,297,0.0,4.0,69,0.00,,,0.00,Wunderground v.1.15,2013-03-30 02:56:00,
2013-03-29 23:00:00,41.5,32.1,29.94,WNW,297,0.0,1.0,69,0.00,,,0.00,Wunderground v.1.15,2013-03-30 03:00:00,
2013-03-29 23:02:00,41.5,32.1,29.94,WNW,297,0.0,1.0,69,0.00,,,0.00,Wunderground v.1.15,2013-03-30 03:02:00,
2013-03-29 23:03:00,41.5,32.1,29.94,WNW,297,0.0,1.0,69,0.00,,,0.00,Wunderground v.1.15,2013-03-30 03:03:00,
2013-03-29 23:08:00,41.4,32.0,29.94,NW,306,1.0,3.0,69,0.00,,,0.00,Wunderground v.1.15,2013-03-30 03:08:00,
2013-03-29 23:09:00,41.4,32.0,29.94,NW,306,1.0,3.0,69,0.00,,,0.00,Wunderground v.1.15,2013-03-30 03:09:00,
2013-03-29 23:10:00,41.4,32.0,29.94,NW,306,1.0,1.0,69,0.00,,,0.00,Wunderground v.1.15,2013-03-30 03:10:00,
2013-03-29 23:13:00,41.4,32.0,29.94,NW,311,1.0,2.0,69,0.00,,,0.00,Wunderground v.1.15,2013-03-30 03:13:00,
2013-03-29 23:15:00,41.4,32.0,29.94,NW,307,1.0,2.0,69,0.00,,,0.00,Wunderground v.1.15,2013-03-30 03:15:00,
2013-03-29 23:16:00,41.4,32.0,29.94,NW,307,1.0,2.0,69,0.00,,,0.00,Wunderground v.1.15,2013-03-30 03:16:00,
2013-03-29 23:18:00,41.4,32.3,29.94,NW,307,1.0,2.0,70,0.00,,,0.00,Wunderground v.1.15,2013-03-30 03:18:00,
2013-03-29 23:19:00,41.3,32.2,29.94,NW,307,1.0,2.0,70,0.00,,,0.00,Wunderground v.1.15,2013-03-30 03:19:00,
2013-03-29 23:20:00,41.3,31.9,29.94,WNW,292,1.0,1.0,69,0.00,,,0.00,Wunderground v.1.15,2013-03-30 03:20:00,
2013-03-29 23:25:00,41.3,32.2,29.94,WNW,300,1.0,4.0,70,0.00,,,0.00,Wunderground v.1.15,2013-03-30 03:25:00,
2013-03-29 23:26:00,41.3,32.2,29.94,WNW,299,1.0,4.0,70,0.00,,,0.00,Wunderground v.1.15,2013-03-30 03:26:00,
2013-03-29 23:29:00,41.2,32.2,29.94,WNW,298,1.0,4.0,70,0.00,,,0.00,Wunderground v.1.15,2013-03-30 03:29:00,
2013-03-29 23:32:00,41.2,32.2,29.94,WNW,299,1.0,1.0,70,0.00,,,0.00,Wunderground v.1.15,2013-03-30 03:32:00,
2013-03-29 23:34:00,41.2,31.8,29.94,WNW,292,1.0,2.0,69,0.00,,,0.00,Wunderground v.1.15,2013-03-30 03:34:00,
2013-03-29 23:37:00,41.2,31.8,29.94,WNW,300,1.0,4.0,69,0.00,,,0.00,Wunderground v.1.15,2013-03-30 03:37:00,
2013-03-29 23:39:00,41.1,31.7,29.94,NW,311,1.0,4.0,69,0.00,,,0.00,Wunderground v.1.15,2013-03-30 03:39:00,
2013-03-29 23:43:00,41.1,31.7,29.94,NW,304,1.0,3.0,69,0.00,,,0.00,Wunderground v.1.15,2013-03-30 03:43:00,
2013-03-29 23:44:00,41.1,31.7,29.94,NW,304,1.0,3.0,69,0.00,,,0.00,Wunderground v.1.15,2013-03-30 03:44:00,
2013-03-29 23:45:00,41.1,31.7,29.94,NW,304,1.0,3.0,69,0.00,,,0.00,Wunderground v.1.15,2013-03-30 03:45:00,
2013-03-29 23:49:00,41.0,31.6,29.94,NNW,342,1.0,3.0,69,0.00,,,0.00,Wunderground v.1.15,2013-03-30 03:49:00,
2013-03-29 23:51:00,41.0,31.6,29.94,NNW,336,1.0,2.0,69,0.00,,,0.00,Wunderground v.1.15,2013-03-30 03:51:00,
2013-03-29 23:52:00,41.0,31.6,29.94,NW,306,1.0,2.0,69,0.00,,,0.00,Wunderground v.1.15,2013-03-30 03:52:00,
2013-03-29 23:56:00,40.9,31.5,29.94,NNW,329,1.0,2.0,69,0.00,,,0.00,Wunderground v.1.15,2013-03-30 03:56:00,
2013-03-29 23:57:00,40.8,31.4,29.94,NNW,329,1.0,2.0,69,0.00,,,0.00,Wunderground v.1.15,2013-03-30 03:57:00,
2013-03-29 23:58:00,40.8,31.4,29.94,NNW,329,1.0,2.0,69,0.00,,,0.00,Wunderground v.1.15,2013-03-30 03:58:00,